[{"header": {"dx": 0.06612293990616946, "dy": 0.0552356325346848, "nx": 98, "ny": 59, "la1": 35.046912555036876, "la2": 31.78801023549047, "lo1": -121.43107172385933, "lo2": -114.95102361305473, "refTime": "2026041701", "parameterCategory": 1, "parameterNumber": 2}, "data": [12.64, 12.35, 12.36, 12.03, 12.02, 11.68, 11.68, 12.0, 11.73, 12.07, 11.8, 11.53, 12.95, 12.04, 11.13, 11.11, 11.18, 11.18, 11.62, 12.52, 12.52, 12.96, 9.97, 1.84, -3.07, -4.58, -4.39, -2.71, -2.42, -1.23, 0.0, 0.0, 1.5, 2.82, 4.23, 5.1, 5.98, 5.21, 5.63, 6.95, 7.35, 8.12, 9.3, 11.16, 13.74, 15.58, 19.19, 20.02, 16.73, 14.5, 14.72, 15.2, 15.65, 15.65, 16.09, 15.62, 15.62, 16.0, 16.46, 16.46, 16.01, 15.56, 15.55, 15.11, 15.55, 15.45, 15.91, 16.46, 16.47, 16.47, 17.79, 17.86, 16.51, 14.73, 14.73, 14.73, 14.73, 14.3, 14.75, 14.75, 14.75, 14.3, 13.41, 12.49, 12.04, 12.05, 12.04, 11.6, 11.6, 11.6, 11.59, 12.07, 10.87, 6.65, 5.8, 5.8, 6.43, 8.3, 12.33, 12.35, 12.36, 12.03, 11.69, 11.93, 11.68, 11.68, 12.0, 12.07, 11.17, 12.29, 11.69, 11.39, 12.14, 11.18, 10.65, 12.07, 12.52, 11.06, 13.15, 12.71, 11.6, 2.93, -2.95, -4.4, -3.77, -3.61, -2.33, -2.62, -1.53, 0.0, 0.0, 1.52, 4.05, 4.66, 4.68, 5.1, 5.1, 6.77, 8.22, 8.22, 10.09, 12.05, 14.88, 17.44, 19.99, 17.02, 13.75, 14.6, 15.17, 15.61, 15.65, 15.2, 15.65, 15.65, 15.62, 15.62, 16.07, 16.07, 15.62, 15.18, 15.11, 15.11, 15.11, 15.56, 16.01, 16.46, 16.46, 16.9, 18.24, 18.75, 16.51, 14.3, 14.3, 14.75, 14.75, 14.3, 14.75, 14.75, 14.75, 14.3, 13.41, 12.49, 12.04, 12.05, 12.04, 11.6, 11.6, 11.6, 11.59, 12.07, 10.87, 6.65, 5.8, 5.8, 6.43, 8.3, 12.67, 12.35, 12.36, 12.03, 11.97, 11.93, 11.93, 11.68, 12.0, 12.07, 11.17, 9.9, 11.69, 11.38, 10.58, 10.7, 10.96, 10.47, 11.71, 12.79, 11.18, 11.62, 11.62, 7.44, -2.72, -5.32, -4.4, -3.45, -3.61, -2.42, -3.1, -1.68, 0.0, 0.0, 2.21, 4.83, 4.94, 5.36, 5.21, 7.14, 8.12, 10.22, 12.63, 14.41, 15.99, 16.57, 15.61, 13.67, 14.37, 15.02, 15.49, 15.61, 15.61, 15.65, 14.75, 15.2, 15.2, 15.2, 15.65, 15.65, 15.62, 15.18, 14.73, 14.73, 15.18, 15.62, 16.07, 16.07, 16.52, 17.41, 18.31, 18.33, 16.09, 14.3, 14.3, 14.75, 15.2, 14.75, 14.75, 14.75, 14.72, 14.28, 13.38, 12.49, 11.53, 11.53, 11.53, 11.52, 11.52, 11.59, 13.41, 11.64, 6.65, 5.6, 5.8, 6.43, 8.3, 9.17, 12.33, 12.35, 12.36, 12.31, 11.97, 11.93, 12.28, 12.28, 12.35, 11.44, 10.81, 9.85, 11.17, 10.56, 10.8, 10.4, 10.79, 11.03, 11.03, 11.03, 10.84, 10.6, 10.38, 9.3, 0.0, -6.67, -4.8, -3.3, -3.14, -2.13, -2.37, -1.38, -1.6, 0.0, 2.35, 5.4, 5.2, 5.32, 6.41, 7.62, 9.44, 11.7, 12.19, 12.13, 11.42, 12.58, 13.57, 13.88, 14.31, 15.02, 15.07, 15.49, 15.17, 15.17, 15.17, 14.75, 14.75, 15.2, 15.65, 15.65, 15.2, 15.18, 14.73, 14.73, 15.18, 15.18, 15.62, 16.02, 16.47, 18.25, 19.65, 19.22, 17.43, 14.29, 13.78, 14.22, 14.22, 15.18, 15.17, 14.72, 13.76, 13.74, 12.85, 11.95, 11.51, 11.06, 11.51, 11.51, 11.14, 12.9, 12.65, 6.88, 4.75, 6.21, 6.43, 8.59, 9.17, 10.79, 12.33, 12.35, 12.36, 12.31, 11.97, 11.93, 12.28, 12.28, 12.35, 11.44, 10.48, 9.85, 10.82, 10.41, 10.35, 10.35, 10.2, 10.4, 10.4, 10.16, 11.2, 10.73, 9.97, 9.97, 4.6, -2.37, -6.0, -3.96, -1.84, -1.09, -1.07, -1.01, -1.01, 0.0, 2.02, 4.05, 6.16, 8.05, 6.76, 8.18, 8.58, 9.17, 10.03, 11.58, 11.99, 12.79, 13.57, 14.31, 14.81, 14.81, 15.05, 14.6, 14.62, 14.72, 15.17, 15.17, 14.75, 15.2, 15.2, 15.2, 14.75, 14.73, 14.28, 14.65, 14.66, 15.62, 16.07, 15.62, 16.45, 19.13, 22.24, 22.32, 19.64, 19.22, 16.51, 12.88, 13.76, 14.19, 15.17, 14.21, 13.18, 12.71, 12.27, 11.36, 10.45, 11.51, 12.03, 11.62, 12.04, 10.43, 6.4, 4.75, 4.75, 6.94, 7.19, 9.48, 10.79, 10.79, 12.33, 12.35, 12.35, 12.65, 11.97, 11.97, 12.28, 12.28, 12.35, 11.8, 10.48, 9.17, 10.47, 9.88, 10.35, 9.97, 9.97, 10.35, 9.52, 9.02, 9.08, 6.97, 7.19, 6.67, 3.82, 0.0, -3.82, -3.96, -2.13, 0.0, 0.0, 0.0, 0.0, 0.93, 2.08, 3.65, 5.63, 6.7, 7.2, 5.93, 6.08, 9.02, 10.36, 12.17, 12.62, 13.2, 13.99, 14.31, 14.37, 13.94, 14.14, 14.27, 14.3, 14.3, 14.75, 14.75, 14.75, 14.75, 14.73, 14.73, 14.28, 13.83, 13.76, 14.28, 16.07, 16.51, 16.96, 15.54, 15.87, 17.64, 21.61, 23.13, 23.33, 19.98, 19.22, 17.43, 12.93, 13.41, 13.86, 14.16, 12.24, 11.8, 11.33, 10.89, 10.84, 11.57, 12.07, 11.5, 7.59, 4.52, 3.82, 5.8, 5.8, 5.8, 8.38, 11.16, 10.79, 10.41, 12.33, 12.35, 12.35, 12.36, 12.31, 11.97, 12.28, 12.28, 12.08, 11.8, 10.48, 9.17, 10.47, 10.25, 10.99, 9.52, 10.18, 10.25, 9.42, 9.34, 8.97, 8.85, 7.68, 4.9, 1.77, 0.0, -3.19, -3.32, -1.71, -1.18, 0.0, 0.0, 1.75, 2.7, 4.15, 3.73, 4.24, 6.94, 6.2, 3.51, 4.24, 6.43, 9.16, 12.65, 13.99, 13.99, 15.39, 15.39, 14.25, 14.3, 14.3, 14.26, 14.58, 14.16, 14.18, 14.19, 14.21, 14.28, 14.28, 14.28, 13.39, 13.38, 13.83, 15.62, 16.07, 16.26, 16.05, 14.42, 14.42, 15.44, 18.01, 20.16, 20.95, 20.28, 18.2, 17.4, 15.16, 12.52, 12.96, 13.86, 12.37, 11.28, 11.28, 10.78, 11.53, 11.84, 7.69, 3.47, 2.81, 2.54, 1.98, 4.1, 4.24, 6.9, 9.48, 10.79, 10.41, 9.08, 12.33, 12.35, 12.35, 12.36, 12.31, 11.97, 12.28, 12.02, 12.08, 11.44, 10.48, 8.49, 9.69, 10.12, 10.73, 9.4, 10.01, 11.16, 10.01, 9.77, 10.56, 10.81, 11.58, 10.62, 8.15, 0.0, -3.53, -3.53, -1.84, -1.58, 0.0, 0.0, 2.6, 4.23, 4.15, 3.21, 3.39, 3.39, 0.0, 0.0, 2.71, 6.7, 10.79, 13.44, 14.75, 16.54, 15.97, 15.78, 14.56, 14.23, 12.18, 13.15, 14.1, 13.99, 14.18, 14.19, 13.83, 13.86, 13.41, 13.41, 12.52, 12.52, 15.2, 15.61, 14.95, 14.56, 14.09, 13.59, 13.56, 14.42, 15.36, 18.28, 19.09, 17.33, 15.09, 14.21, 14.71, 13.82, 13.41, 14.75, 15.65, 11.05, 11.28, 12.44, 12.96, -0.0, -4.52, -3.47, -0.0, -0.0, -0.0, 2.13, 2.2, 6.9, 8.1, 9.42, 8.22, 7.54, 12.01, 12.35, 12.35, 12.36, 12.31, 11.97, 11.97, 12.02, 11.73, 11.44, 10.12, 8.44, 9.71, 8.49, 9.48, 9.17, 9.48, 9.92, 10.03, 9.36, 9.5, 10.99, 11.6, 12.99, 11.36, 9.67, 2.83, 0.0, 0.0, 0.0, 0.0, 2.2, 4.98, 7.78, 6.94, 5.32, 3.39, -5.0, -0.0, -0.0, 5.4, 8.85, 10.41, 11.99, 12.27, 12.03, 14.79, 14.51, 14.18, 14.13, 14.3, 12.72, 13.5, 14.14, 14.27, 14.3, 13.41, 12.52, 12.52, 12.52, 11.62, 14.71, 15.2, 13.02, 10.47, 11.7, 13.97, 13.99, 13.35, 13.75, 14.47, 16.44, 18.74, 16.09, 14.3, 13.86, 13.41, 12.52, 14.27, 16.06, 17.39, 13.82, 11.02, 12.27, -13.41, -12.72, -11.16, -9.48, -5.4, -2.45, -0.0, -0.0, -0.0, 4.81, 6.44, 7.54, 7.54, 5.6, 12.01, 12.35, 12.7, 12.7, 12.65, 12.31, 11.97, 12.02, 11.73, 11.09, 10.12, 9.13, 8.85, 8.17, 9.16, 8.31, 8.31, 7.89, 7.69, 6.08, 5.86, 7.51, 8.83, 10.77, 10.77, 9.48, 8.33, 8.0, 10.0, 8.22, 3.53, 11.62, -0.0, 7.27, 12.07, 11.62, 9.6, -0.0, 5.2, 8.85, 8.22, 8.53, 9.82, 10.09, 10.8, 11.64, 12.03, 12.89, 13.76, 14.79, 14.7, 14.28, 13.8, 14.11, 14.26, 14.26, 13.41, 12.07, 11.62, 12.03, 13.37, 16.54, 12.01, 7.2, 8.91, 11.18, 13.05, 13.71, 12.58, 13.07, 13.82, 15.2, 16.54, 14.75, 13.39, 12.87, 12.24, 11.76, 11.8, 14.03, 16.22, 17.05, 12.94, 10.04, -12.07, -11.84, -11.21, -10.01, -7.51, -6.44, -3.96, -3.68, -0.0, -0.0, 4.65, 6.44, 6.67, 5.8, 12.01, 12.7, 12.7, 12.7, 12.65, 12.31, 11.97, 12.02, 11.73, 11.4, 10.76, 10.43, 10.43, 10.12, 10.75, 9.36, 8.87, 7.19, 7.79, 8.05, 7.5, 6.99, 7.69, 7.62, 8.83, 8.93, 9.55, 8.8, 4.4, 9.83, 9.2, -0.0, -0.0, 3.11, 8.55, 11.87, 8.53, 6.97, 7.44, 9.5, 10.01, 10.24, 9.86, 10.4, 11.21, 10.04, 9.17, 10.3, 11.64, 13.19, 14.07, 14.85, 15.11, 15.11, 15.11, 15.52, 14.94, 12.71, 11.18, 14.03, 17.88, 10.13, 5.94, 6.81, 8.46, 9.87, 11.17, 12.33, 12.82, 11.87, 13.82, 14.3, 14.73, 13.76, 13.21, 13.23, 11.62, 11.2, 10.8, 11.97, 13.89, 14.95, 14.84, 10.43, -11.16, -13.41, -13.28, -11.6, -9.77, -8.53, -7.26, -5.98, -2.71, -0.0, 3.04, 4.98, 4.98, 4.24, 12.37, 12.7, 12.7, 12.7, 12.65, 12.31, 11.97, 12.02, 12.02, 11.73, 11.07, 10.74, 10.75, 11.37, 11.93, 10.94, 9.37, 9.27, 9.59, 9.96, 10.91, 11.66, 11.42, 12.89, 11.64, 11.09, 11.03, 9.39, -0.0, -0.0, 4.8, 4.8, 4.6, 5.7, 7.27, 8.58, 7.9, 7.44, 8.22, 9.16, 10.24, 9.86, 10.21, 10.6, 10.38, 6.7, 7.78, 8.05, 11.09, 11.8, 10.75, 12.33, 12.96, 12.51, 10.91, 11.53, 13.25, 13.59, 10.73, 13.59, 5.8, 4.03, 5.07, 5.49, 6.12, 7.66, 9.8, 11.09, 14.22, 13.58, 12.82, 14.18, 14.75, 14.18, 13.15, 11.6, 10.79, 9.77, 10.48, 11.53, 13.34, 14.65, 15.19, 13.46, 0.0, -17.2, -15.2, -13.44, -13.75, -11.99, -10.35, -8.58, -7.9, -3.82, -0.0, 2.63, 2.63, 4.98, 12.7, 12.7, 12.7, 12.7, 12.65, 12.31, 12.31, 12.02, 11.69, 11.69, 11.07, 11.36, 11.05, 11.66, 12.57, 13.1, 12.93, 11.85, 12.29, 12.7, 13.91, 14.7, 15.34, 16.01, 16.07, 15.18, 14.75, 14.71, 14.16, 11.6, 8.22, 7.59, 7.27, 8.23, 8.23, 7.59, 7.59, 7.9, 8.59, 9.46, 10.4, 10.62, 10.46, 9.04, 8.55, 5.95, 5.4, 7.19, 7.69, 7.93, 8.66, 8.18, 8.43, 6.34, 6.81, 8.4, 11.41, 17.17, 14.75, 11.2, -0.0, 3.13, 4.93, 4.95, 5.6, 6.27, 7.89, 10.59, 15.02, 17.7, 17.85, 15.02, 12.83, 13.38, 12.63, 11.26, 10.3, 9.57, 10.17, 11.3, 11.93, 13.03, 13.8, 14.46, 10.02, 0.0, -17.88, -15.65, -15.08, -15.49, -14.75, -11.84, -10.0, -8.53, -4.1, -0.0, 3.25, 3.25, 12.7, 12.7, 12.7, 12.65, 12.65, 12.31, 12.31, 12.28, 11.69, 11.69, 11.69, 11.36, 11.36, 11.66, 12.26, 13.16, 13.39, 13.86, 13.45, 13.28, 13.92, 14.61, 15.69, 16.31, 16.41, 16.08, 16.09, 16.09, 16.09, 15.2, 13.72, 10.4, 9.3, 7.87, 8.43, 8.03, 6.95, 6.87, 8.24, 9.32, 10.46, 10.41, 11.02, 9.2, 5.46, 2.49, 3.82, 6.94, 7.19, 7.44, 7.69, 7.19, 5.6, 5.8, 6.0, 6.94, 10.75, 19.08, 21.46, 9.48, -0.0, 2.8, 4.62, 6.14, 5.13, 5.0, 6.1, 8.6, 12.61, 16.12, 19.57, 19.29, 16.55, 12.07, 10.84, 10.55, 8.85, 8.03, 8.25, 10.6, 12.16, 13.29, 14.94, 15.78, 14.3, 15.87, 16.54, -16.54, -14.75, -15.05, -15.05, -12.52, -11.4, -11.6, -7.19, -0.0, -0.0, 3.25, 12.7, 12.7, 12.7, 12.65, 12.65, 12.65, 12.31, 12.63, 11.97, 11.69, 11.69, 11.97, 11.97, 11.92, 12.26, 13.16, 13.46, 13.85, 14.39, 14.24, 14.07, 14.54, 15.14, 15.32, 15.45, 15.53, 15.63, 16.09, 15.65, 15.65, 15.2, 13.34, 11.84, 9.55, 9.2, 8.23, 7.59, 6.95, 9.58, 9.63, 10.65, 11.02, 10.08, 6.95, 4.4, 1.93, 2.02, 2.71, 5.2, 6.7, 7.19, 6.94, 6.97, 7.59, 7.27, 7.59, 11.28, 15.2, 19.22, 14.55, 4.1, 4.55, 6.65, 7.44, 7.44, 7.44, 8.18, 8.43, 11.38, 14.77, 16.97, 21.04, 20.4, -0.0, -6.94, -4.81, 17.43, 12.33, 15.19, 16.76, 16.99, 16.99, 15.58, 15.15, 13.36, 15.08, 13.44, 14.3, -13.88, -12.65, -13.57, -12.39, -11.91, -10.37, -6.0, -0.0, 3.14, 3.14, 12.7, 12.36, 12.36, 12.65, 12.65, 12.65, 12.63, 12.63, 11.97, 11.97, 11.97, 11.97, 11.97, 12.22, 12.57, 12.57, 13.16, 13.46, 14.4, 14.79, 14.86, 14.84, 14.64, 14.78, 15.01, 15.15, 15.63, 15.65, 16.09, 15.63, 15.65, 15.2, 13.38, 11.18, 10.14, 7.76, 7.9, 8.37, 9.2, 10.58, 9.76, 9.46, 8.23, 4.4, 3.65, 1.93, 2.02, 3.98, 4.8, 5.0, 8.22, 8.85, 7.24, 8.22, 8.23, 8.8, 10.52, 12.96, 15.18, 12.22, 7.18, 7.15, 7.59, 8.93, 8.82, 9.97, 9.27, 10.12, 12.27, 16.79, 22.69, 20.12, 17.35, -14.54, -0.0, 6.28, 9.71, 12.96, 14.88, 15.33, 16.69, 17.22, 17.15, 15.14, 12.52, 11.09, 12.52, 12.07, 0.0, -5.8, -12.39, -9.42, -5.8, -1.9, -0.0, 2.06, 3.96, 3.96, 12.7, 12.7, 12.36, 12.65, 12.65, 12.65, 12.63, 12.63, 11.97, 11.97, 11.97, 11.97, 12.22, 12.22, 12.22, 12.57, 12.87, 13.1, 13.95, 14.4, 15.04, 15.14, 15.33, 15.25, 15.1, 16.05, 16.08, 16.09, 16.09, 16.54, 16.09, 16.09, 14.3, 12.07, 9.39, 9.6, 9.45, 9.96, 10.08, 9.64, 10.08, 6.32, 6.17, 4.0, 3.82, 2.02, 3.82, 4.8, 6.44, 6.44, 6.44, 6.71, 8.22, 8.22, 7.9, 8.73, 10.0, 10.8, 10.87, 10.18, 9.17, 8.24, 8.55, 8.63, 9.03, 8.37, 9.55, 9.96, 12.87, 17.2, 24.59, 18.21, 16.91, 15.33, 13.28, 13.29, 13.51, 14.76, 15.28, 15.61, 16.14, 16.96, 16.92, 15.65, 11.78, 9.2, 10.52, 9.17, 3.25, -13.86, -5.15, -3.04, -1.25, -0.0, 1.66, 2.93, 5.11, 5.11, 12.35, 12.7, 12.7, 12.65, 12.65, 12.65, 12.98, 12.63, 12.31, 11.97, 12.22, 12.22, 12.22, 12.22, 12.22, 12.52, 12.87, 13.1, 13.39, 14.13, 14.63, 14.94, 14.9, 14.78, 15.54, 16.05, 16.5, 16.05, 16.05, 16.49, 16.49, 16.03, 15.12, 12.87, 12.52, 12.07, 11.18, 11.18, 10.28, 9.83, 8.8, 5.95, 5.7, 4.6, 4.8, 3.98, 6.44, 6.44, 7.59, 7.59, 7.59, 5.52, 5.52, 5.52, 6.7, 7.59, 7.9, 8.59, 7.9, 8.22, 9.09, 9.32, 9.45, 9.46, 9.03, 8.24, 8.43, 9.64, 11.46, 15.49, 22.8, 20.12, 19.09, 16.37, 15.71, 14.59, 14.95, 17.14, 17.99, 16.79, 17.11, 17.25, 16.54, 13.09, 11.87, 8.85, 8.1, 9.17, 6.9, 12.79, 1.77, -0.0, -0.0, 1.13, 2.81, 4.55, 5.8, 5.8, 12.35, 12.7, 12.7, 12.99, 12.65, 12.65, 12.65, 12.92, 12.57, 12.22, 12.22, 12.22, 12.22, 12.22, 12.22, 13.95, 11.93, 12.52, 12.74, 13.46, 14.22, 15.14, 14.22, 15.1, 14.21, 15.25, 12.18, 14.21, 14.4, 14.39, 15.83, 15.91, 14.66, 13.31, 12.85, 12.39, 11.91, 11.88, 11.09, 10.73, 10.6, 9.3, 7.9, 6.2, 5.4, 6.71, 6.44, 8.58, 8.58, 7.59, 5.52, 3.98, 4.8, 4.8, 5.95, 6.87, 7.59, 7.59, 7.9, 9.09, 9.7, 10.27, 10.32, 9.16, 9.34, 9.33, 8.87, 8.63, 9.7, 13.75, 18.41, 19.68, 23.19, 21.04, 18.78, 16.36, 15.98, 16.07, 19.19, 19.52, 17.43, 17.88, 14.3, 12.52, 13.41, 13.41, 12.72, 12.14, 10.47, 9.8, 2.89, 1.25, 1.09, 2.08, 4.38, 6.4, 6.88, 6.88, 12.35, 12.7, 12.7, 12.65, 12.65, 12.65, 12.92, 12.92, 12.57, 12.57, 12.22, 12.22, 12.22, 12.22, 12.22, 12.52, 11.93, 11.33, 12.3, 12.65, 14.85, 13.9, 13.75, 14.11, 13.49, 12.86, 12.39, 12.52, 13.6, 14.68, 15.08, 15.38, 14.16, 12.92, 12.35, 12.08, 11.76, 11.21, 11.4, 12.52, 12.66, 11.72, 9.67, 8.73, 8.53, 8.22, 8.23, 8.23, 8.23, 6.17, 3.82, 3.25, 3.25, 4.8, 5.21, 6.17, 7.9, 6.83, 8.47, 10.8, 11.18, 11.06, 10.62, 10.62, 9.77, 9.76, 7.81, 6.24, 8.24, 12.65, 16.6, 19.27, 24.34, 24.76, 20.55, 17.86, 15.75, 15.01, 16.05, 19.05, 17.84, 17.43, 15.2, 12.96, 13.34, 13.19, 13.19, 13.19, 12.96, 8.44, 5.15, 3.65, 2.54, 3.73, 6.4, 8.06, 8.57, 8.57, 12.35, 12.35, 12.7, 12.65, 12.65, 12.65, 12.92, 12.92, 12.57, 12.57, 12.22, 12.22, 12.22, 12.45, 12.45, 12.8, 12.52, 11.33, 10.39, 12.57, 13.51, 12.73, 13.01, 13.01, 13.48, 13.62, 12.79, 13.04, 13.48, 14.33, 14.69, 14.37, 13.63, 12.0, 12.42, 11.72, 11.2, 10.24, 11.45, 12.88, 12.96, 11.98, 11.03, 10.35, 10.73, 8.53, 8.23, 8.23, 6.95, 3.65, 1.62, 1.69, 3.25, 4.6, 4.8, 5.45, 6.86, 7.48, 9.82, 10.68, 11.18, 11.51, 11.06, 11.18, 9.46, 7.9, 4.18, 5.0, 6.44, 10.12, 13.05, 16.57, 22.69, 20.85, 18.71, 17.44, 15.47, 14.73, 13.8, 13.19, 17.62, 17.38, 16.99, 13.41, 13.8, 13.63, 13.37, 13.15, 12.17, 8.53, 4.48, 4.58, 5.31, 6.2, 7.93, 9.71, 9.71, 9.71, 12.35, 12.35, 12.7, 12.65, 12.65, 12.65, 12.92, 12.92, 12.57, 12.57, 12.22, 12.22, 12.45, 12.45, 12.45, 12.8, 12.57, 11.63, 11.63, 12.16, 12.65, 12.0, 11.44, 12.37, 13.48, 14.15, 14.22, 13.32, 13.57, 13.83, 13.88, 13.11, 12.35, 12.01, 12.39, 11.62, 9.77, 9.27, 11.26, 12.58, 12.52, 12.07, 11.46, 11.45, 10.35, 9.67, 9.6, 8.8, 4.4, 1.93, 1.62, 1.62, 3.65, 3.11, 4.6, 5.0, 5.98, 7.36, 9.16, 9.3, 10.05, 10.84, 10.65, 9.89, 7.27, 4.18, 3.67, 4.15, 5.2, 7.54, 7.58, 13.36, 21.73, 17.24, 11.41, 10.91, 12.5, 13.46, 12.39, 11.87, 13.97, 15.9, 16.48, 15.65, 14.75, 14.68, 14.47, 13.89, 12.65, 8.22, 5.4, 5.55, 7.06, 8.46, 8.78, 9.42, 8.85, 8.85, 12.35, 12.35, 12.35, 12.65, 12.65, 12.65, 12.92, 12.92, 12.57, 12.57, 12.57, 12.22, 12.45, 12.45, 12.45, 12.8, 12.57, 12.22, 12.22, 12.73, 13.21, 12.82, 11.99, 11.72, 12.27, 13.62, 13.99, 14.03, 13.51, 13.15, 12.97, 12.18, 11.84, 12.2, 12.71, 12.04, 10.73, 9.77, 10.79, 12.04, 12.39, 12.07, 11.62, 11.91, 9.97, 9.67, 9.6, 6.95, 4.4, 1.93, 1.93, 3.82, 3.65, 3.25, 3.25, 4.8, 5.43, 5.99, 8.44, 6.95, 8.0, 9.45, 8.55, 6.58, 4.18, 3.67, 3.82, 4.6, 4.99, 5.92, 6.67, 12.01, 21.86, 14.75, 8.06, 5.69, 7.9, 9.92, 10.47, 11.06, 10.86, 13.9, 15.69, 16.03, 15.2, 14.4, 14.23, 12.73, 12.01, 10.6, 6.44, 7.69, 8.94, 9.8, 10.12, 10.12, 9.13, 9.13, 12.35, 12.35, 12.35, 12.66, 12.65, 12.65, 12.92, 12.92, 12.57, 12.57, 12.57, 12.45, 12.45, 12.45, 12.8, 12.8, 12.8, 12.22, 12.45, 13.01, 13.58, 13.75, 13.09, 12.16, 12.16, 12.54, 12.95, 13.71, 13.53, 13.32, 12.78, 12.42, 12.06, 12.18, 12.53, 12.08, 10.8, 11.26, 11.6, 12.04, 12.39, 11.95, 12.07, 12.07, 11.03, 9.58, 10.41, 8.22, 5.0, 4.8, 4.32, 3.98, 3.82, 1.93, 3.25, 3.25, 3.45, 4.72, 6.43, 6.76, 6.32, 6.52, 6.01, 5.69, 3.82, 3.51, 4.44, 5.2, 5.46, 6.17, 8.55, 21.33, 27.27, 22.19, 15.77, 11.72, 12.83, 12.83, 12.42, 10.43, 10.12, 11.34, 12.74, 14.31, 14.75, 13.88, 12.81, 10.43, 9.89, 9.88, 8.78, 8.38, 9.8, 10.69, 9.8, 9.8, 8.23, 8.23, 12.35, 12.35, 12.35, 12.66, 12.33, 12.33, 12.57, 12.57, 12.57, 12.57, 12.22, 12.45, 12.45, 12.8, 12.8, 12.8, 12.8, 12.45, 12.8, 13.01, 13.38, 13.48, 13.2, 12.82, 12.54, 12.42, 12.81, 12.95, 13.19, 13.02, 12.83, 12.11, 12.24, 12.36, 12.49, 11.95, 11.27, 12.04, 11.6, 11.5, 11.61, 11.95, 12.07, 11.62, 11.46, 11.03, 11.45, 10.27, 8.93, 8.73, 4.23, 2.28, 2.02, 2.02, 3.82, 3.65, 3.11, 2.28, 3.68, 6.45, 7.59, 6.32, 5.82, 5.21, 3.65, 3.36, 4.44, 5.75, 6.86, 8.72, 12.0, 16.94, 21.84, 27.4, 23.39, 19.57, 16.31, 13.65, 13.41, 12.45, 11.07, 11.33, 12.65, 14.66, 14.22, 13.56, 12.27, 10.43, 9.89, 9.77, 11.36, 11.06, 10.38, 10.69, 10.02, 9.48, 8.61, 8.61, 12.35, 12.35, 12.35, 12.66, 12.33, 12.33, 12.33, 12.57, 12.57, 12.22, 12.22, 12.45, 12.45, 12.8, 12.8, 12.8, 12.8, 12.45, 12.8, 13.01, 13.01, 13.01, 13.3, 12.93, 13.09, 12.7, 12.42, 13.07, 13.07, 12.67, 12.51, 12.33, 11.82, 12.04, 11.75, 11.87, 11.8, 11.5, 11.55, 11.44, 11.71, 11.98, 11.98, 11.62, 11.62, 11.51, 11.18, 10.75, 10.75, 9.58, 4.8, 1.14, 1.98, 2.28, 3.53, 3.39, 1.84, 1.84, 2.02, 5.75, 8.22, 8.49, 6.64, 4.74, 3.81, 3.65, 5.0, 5.75, 8.41, 9.38, 10.96, 13.86, 16.99, 24.29, 27.0, 22.62, 20.18, 16.03, 12.85, 12.31, 12.27, 11.52, 14.39, 15.65, 13.57, 13.42, 10.75, 10.43, 9.71, 9.87, 11.13, 12.52, 12.4, 11.42, 10.3, 9.48, 9.69, 9.69, 12.02, 12.02, 12.02, 12.33, 12.33, 12.33, 12.33, 11.99, 12.22, 12.22, 12.22, 12.45, 12.45, 12.45, 12.8, 12.8, 12.8, 12.8, 12.8, 13.01, 13.01, 13.01, 13.01, 12.93, 13.2, 13.09, 12.95, 12.67, 12.67, 12.53, 12.39, 11.87, 11.47, 11.08, 11.31, 10.91, 11.12, 11.25, 11.16, 10.79, 10.73, 11.13, 11.55, 11.62, 11.18, 11.09, 11.09, 10.65, 10.62, 9.55, 4.6, 1.18, 2.33, 2.6, 3.19, 2.95, 1.93, -0.0, 1.2, 4.4, 8.22, 7.74, 7.9, 4.56, 3.77, 4.99, 6.2, 8.41, 9.3, 10.79, 11.88, 12.52, 14.3, 16.51, 20.02, 25.63, 23.61, 18.71, 12.96, 9.63, 9.27, 9.8, 14.75, 13.19, 11.09, 10.43, 11.06, 11.06, 10.17, 10.43, 10.75, 13.01, 13.82, 12.87, 11.8, 10.85, 10.62, 10.62, 12.02, 12.02, 12.02, 12.33, 12.33, 12.33, 12.33, 11.99, 12.22, 12.22, 12.22, 12.45, 12.45, 12.8, 12.8, 12.8, 12.8, 12.8, 12.8, 12.8, 13.01, 13.01, 12.65, 12.93, 12.93, 12.82, 12.7, 12.54, 12.42, 11.75, 11.6, 11.47, 11.33, 10.94, 10.55, 10.8, 10.4, 10.62, 10.52, 10.65, 10.27, 10.6, 10.96, 10.73, 9.83, 9.83, 9.83, 10.73, 10.28, 9.13, 4.05, 2.23, 3.61, 3.77, 3.61, 3.07, 2.02, 1.84, 2.46, 4.2, 6.3, 7.81, 7.59, 5.7, 4.6, 6.76, 8.41, 8.99, 9.75, 11.44, 12.47, 12.52, 12.94, 13.28, 14.71, 20.52, 24.54, 19.62, 13.96, 6.64, 4.8, 9.17, 11.9, 10.82, 10.55, 10.94, 10.97, 11.38, 11.58, 11.68, 11.8, 13.71, 13.91, 14.51, 13.6, 13.02, 12.07, 12.07, 12.02, 12.02, 12.02, 12.33, 12.33, 12.33, 11.99, 11.99, 11.92, 11.92, 12.22, 12.22, 12.45, 12.8, 12.8, 12.8, 12.8, 12.8, 12.45, 12.45, 13.01, 12.65, 12.45, 12.45, 12.37, 12.0, 12.27, 12.54, 12.42, 12.03, 11.75, 11.47, 11.08, 10.94, 10.55, 10.55, 10.4, 9.88, 10.11, 10.24, 10.38, 10.43, 10.35, 11.09, 10.73, 9.83, 9.35, 9.6, 9.39, 8.43, 3.87, 3.45, 4.4, 4.88, 4.05, 2.39, 2.19, 2.1, 3.11, 4.4, 5.7, 7.27, 6.69, 5.45, 6.2, 8.22, 8.35, 8.55, 9.33, 10.23, 12.07, 13.86, 13.41, 13.15, 13.81, 16.58, 18.79, 19.87, 18.08, 17.33, 12.96, 11.11, 11.87, 11.92, 12.39, 11.28, 11.28, 12.05, 13.16, 13.16, 13.2, 13.99, 14.74, 13.99, 15.14, 14.56, 13.59, 13.59, 11.7, 11.7, 11.7, 11.99, 11.99, 11.99, 11.99, 11.99, 11.66, 11.92, 11.92, 12.22, 12.45, 12.45, 12.8, 12.45, 12.8, 12.45, 12.45, 12.45, 12.45, 12.45, 12.45, 12.09, 12.16, 11.8, 12.09, 11.72, 11.99, 12.03, 12.14, 11.75, 11.47, 10.68, 10.55, 10.16, 10.27, 9.88, 10.11, 9.6, 9.72, 9.86, 10.18, 9.85, 10.23, 10.73, 10.2, 8.87, 9.26, 6.3, 5.72, 6.11, 5.46, 5.21, 5.46, 2.7, 1.16, 2.28, 3.39, 4.4, 5.7, 6.58, 6.98, 7.27, 7.59, 7.06, 7.42, 8.22, 7.51, 9.54, 10.28, 13.36, 15.34, 16.96, 16.31, 17.5, 16.75, 16.73, 19.19, 20.08, 20.97, 16.83, 12.75, 13.21, 13.02, 13.45, 12.9, 12.79, 13.89, 14.05, 14.33, 15.36, 15.44, 14.94, 14.11, 16.44, 15.27, 15.27, 11.7, 11.7, 11.7, 11.99, 11.99, 11.99, 11.99, 11.99, 11.66, 11.92, 11.92, 11.92, 12.45, 12.45, 12.45, 12.45, 12.45, 12.45, 12.45, 12.45, 12.45, 12.45, 12.09, 12.09, 11.8, 11.8, 11.44, 11.35, 11.62, 11.88, 11.88, 11.88, 11.75, 10.83, 10.55, 10.16, 9.88, 9.88, 9.6, 9.6, 9.72, 9.45, 9.6, 9.66, 9.42, 10.47, 10.22, 9.39, 8.63, 8.0, 7.13, 7.64, 7.64, 6.64, 5.21, 3.7, 2.28, 2.39, 3.3, 4.6, 5.7, 6.87, 7.9, 8.15, 7.81, 7.47, 7.27, 8.53, 8.24, 8.8, 7.95, 9.4, 13.39, 21.74, 22.15, 16.9, 15.08, 14.58, 15.85, 20.56, 21.44, 19.15, 14.9, 14.64, 14.44, 14.73, 14.73, 14.53, 13.84, 14.21, 14.36, 14.97, 15.85, 15.85, 15.12, 15.47, 17.09, 17.09, 11.38, 11.38, 11.7, 11.7, 11.99, 11.99, 11.99, 11.99, 11.66, 11.92, 11.92, 11.92, 11.92, 12.45, 12.45, 12.45, 12.45, 12.45, 12.45, 12.45, 12.45, 12.45, 12.09, 11.87, 11.8, 11.8, 11.23, 11.16, 12.27, 10.96, 11.62, 11.62, 11.88, 11.22, 10.83, 10.55, 9.63, 9.88, 9.35, 9.47, 9.32, 9.2, 9.34, 9.08, 9.24, 9.92, 10.24, 9.79, 8.91, 8.58, 8.4, 8.4, 8.15, 7.64, 6.64, 3.7, 3.3, 3.3, 4.2, 4.2, 5.95, 6.87, 7.9, 8.0, 8.37, 7.21, 7.44, 8.82, 10.4, 10.27, 8.6, 8.99, 11.6, 16.96, 28.83, 20.1, 14.65, 12.68, 13.59, 17.41, 19.22, 17.73, 16.56, 15.93, 16.24, 16.66, 16.66, 16.36, 16.15, 13.96, 14.21, 14.73, 15.17, 15.17, 15.51, 15.05, 16.31, 16.31, 11.06, 11.06, 11.38, 11.7, 11.99, 11.99, 11.99, 11.99, 11.66, 11.66, 11.92, 11.92, 11.92, 11.92, 12.45, 12.45, 12.45, 12.45, 12.45, 12.45, 12.45, 12.09, 11.87, 11.87, 11.8, 11.23, 11.23, 10.88, 10.59, 12.27, 10.51, 11.07, 11.07, 11.34, 11.22, 10.3, 10.16, 9.88, 9.35, 9.47, 9.47, 9.2, 9.34, 9.49, 9.66, 9.92, 10.12, 9.83, 9.34, 9.16, 8.91, 8.4, 8.4, 7.64, 6.11, 4.98, 4.56, 4.2, 4.98, 4.98, 5.46, 7.27, 7.9, 7.56, 7.56, 7.9, 7.81, 7.44, 9.96, 11.18, 9.6, 9.77, 10.78, 16.06, 28.58, 24.96, 16.91, 13.38, 12.94, 14.28, 15.58, 16.84, 16.74, 16.6, 17.56, 18.44, 18.88, 17.66, 16.45, 14.21, 13.38, 13.41, 13.86, 14.3, 14.3, 15.15, 16.04, 16.04, 11.06, 11.06, 11.06, 11.38, 11.68, 11.68, 11.68, 11.99, 11.66, 11.66, 11.92, 11.92, 11.92, 11.92, 12.16, 12.16, 12.16, 12.45, 12.45, 12.45, 12.09, 11.87, 11.87, 11.52, 11.52, 11.23, 11.23, 10.88, 11.23, 11.16, 10.51, 10.51, 10.51, 10.51, 10.41, 10.68, 10.55, 9.63, 9.74, 9.6, 9.47, 9.6, 9.05, 9.2, 9.49, 9.66, 10.12, 10.24, 9.83, 9.79, 9.16, 8.91, 8.4, 7.64, 6.64, 5.63, 5.63, 5.63, 4.74, 4.98, 6.97, 6.44, 7.59, 7.59, 6.64, 7.56, 7.56, 8.54, 9.96, 11.03, 10.0, 10.8, 11.78, 14.3, 23.69, 27.18, 19.08, 17.19, 15.47, 15.83, 16.03, 16.52, 16.97, 16.97, 17.36, 18.26, 19.16, 18.31, 16.09, 14.3, 12.96, 12.96, 12.96, 13.41, 13.86, 14.75, 16.04, 16.04, 11.06, 11.06, 11.06, 11.06, 11.06, 11.68, 11.68, 11.36, 11.66, 11.66, 11.66, 11.58, 11.92, 11.92, 11.92, 11.92, 11.92, 11.92, 12.22, 11.87, 11.87, 11.87, 11.87, 11.52, 11.28, 11.23, 11.23, 10.88, 11.23, 11.52, 11.44, 10.51, 10.15, 10.23, 9.86, 9.86, 10.13, 10.02, 9.63, 9.35, 9.47, 9.72, 9.2, 9.34, 9.49, 9.75, 9.92, 10.24, 9.83, 9.83, 9.79, 9.16, 8.4, 7.64, 6.64, 5.89, 5.89, 5.89, 5.89, 5.82, 5.82, 7.9, 7.59, 7.59, 7.59, 8.82, 8.18, 9.86, 10.05, 11.03, 11.21, 11.72, 13.59, 15.18, 19.22, 22.26, 21.4, 18.39, 17.96, 17.87, 16.48, 16.54, 16.54, 16.54, 16.54, 16.99, 17.88, 16.09, 14.75, 13.83, 13.38, 13.38, 13.38, 13.38, 13.86, 13.82, 15.46, 15.46, 11.06, 11.06, 11.06, 11.06, 11.06, 11.06, 11.36, 11.36, 11.36, 11.66, 11.66, 11.33, 11.58, 11.92, 11.92, 11.92, 11.92, 11.58, 11.87, 11.87, 11.87, 11.87, 11.52, 11.28, 10.94, 11.23, 11.23, 10.88, 11.23, 11.23, 11.16, 11.07, 10.41, 9.86, 9.86, 9.5, 9.76, 9.76, 9.63, 9.35, 9.35, 9.47, 9.2, 9.34, 9.6, 9.75, 9.97, 10.12, 9.79, 9.83, 9.79, 9.16, 8.4, 7.96, 6.64, 6.64, 6.32, 6.32, 6.32, 6.01, 6.32, 5.82, 7.9, 8.55, 8.93, 9.58, 9.45, 10.05, 10.41, 10.46, 12.04, 11.62, 14.66, 16.15, 18.68, 18.31, 18.68, 20.2, 20.67, 19.09, 19.21, 16.99, 15.2, 14.75, 14.75, 14.75, 14.72, 14.27, 13.83, 13.82, 13.82, 13.86, 13.41, 13.41, 13.28, 13.39, 13.94, 13.94, 10.75, 10.75, 10.75, 10.75, 11.06, 11.06, 11.06, 11.36, 11.36, 11.03, 11.66, 11.33, 11.33, 11.58, 11.58, 11.58, 11.58, 11.58, 11.58, 11.87, 11.87, 11.52, 11.28, 11.28, 10.94, 11.23, 11.23, 10.88, 10.88, 10.88, 11.16, 10.8, 10.51, 9.86, 9.5, 9.58, 9.21, 9.21, 9.21, 9.1, 8.96, 9.07, 9.2, 9.77, 9.18, 9.49, 9.75, 9.97, 9.68, 9.83, 9.83, 9.16, 8.4, 7.51, 7.51, 6.73, 6.73, 6.73, 6.01, 6.01, 6.32, 6.01, 8.58, 8.55, 9.32, 10.6, 9.45, 9.63, 10.05, 10.05, 11.03, 12.04, 13.89, 17.09, 20.16, 18.75, 15.65, 16.99, 21.44, 20.56, 19.22, 16.97, 14.75, 13.86, 13.86, 13.86, 13.83, 13.82, 14.3, 14.3, 14.26, 14.14, 13.72, 13.5, 13.55, 13.39, 13.39, 13.15, 10.44, 10.44, 10.75, 10.75, 10.75, 10.75, 11.06, 11.06, 11.03, 11.03, 11.03, 11.03, 11.33, 11.33, 11.58, 11.58, 11.58, 11.58, 11.58, 11.87, 11.52, 11.28, 11.28, 11.28, 10.94, 10.94, 10.99, 10.65, 10.88, 10.65, 10.65, 10.59, 10.51, 10.41, 9.86, 9.76, 9.21, 9.21, 8.84, 9.1, 8.55, 8.82, 8.54, 9.77, 8.76, 9.18, 9.49, 9.75, 10.12, 9.83, 9.79, 9.33, 8.21, 7.81, 7.81, 7.44, 7.15, 6.73, 6.39, 6.39, 6.01, 6.01, 7.59, 8.18, 9.45, 9.96, 9.96, 9.45, 9.6, 10.0, 10.0, 11.2, 13.39, 15.87, 22.35, 23.42, 16.99, 15.99, 17.57, 18.16, 16.97, 16.09, 15.65, 14.75, 13.86, 13.86, 14.75, 14.75, 14.71, 14.42, 14.47, 13.82, 13.82, 14.03, 13.55, 13.74, 13.74, 13.39, 10.44, 10.44, 10.75, 10.75, 10.75, 10.75, 10.75, 10.75, 10.75, 11.03, 11.03, 11.03, 11.33, 11.33, 11.33, 11.58, 11.58, 11.58, 11.58, 11.63, 11.28, 11.28, 11.28, 10.94, 10.94, 10.69, 10.65, 10.65, 10.65, 10.65, 10.3, 10.59, 10.23, 10.51, 10.41, 10.13, 9.21, 8.84, 8.65, 8.93, 8.55, 8.43, 8.27, 8.27, 10.08, 9.18, 9.49, 9.66, 9.64, 9.83, 9.64, 9.13, 8.8, 8.4, 8.4, 8.21, 7.44, 6.39, 6.39, 6.39, 6.79, 6.45, 6.55, 8.23, 8.82, 8.82, 8.18, 8.93, 9.32, 9.09, 9.09, 10.4, 12.46, 13.99, 17.74, 23.34, 25.83, 16.07, 15.17, 14.19, 14.19, 14.75, 14.75, 14.28, 13.75, 14.21, 14.97, 14.94, 14.75, 14.75, 14.31, 14.31, 14.06, 14.18, 13.83, 13.86, 13.86, 13.74, 10.13, 10.13, 10.13, 10.13, 10.43, 10.43, 10.75, 10.75, 10.75, 10.75, 10.75, 11.03, 11.33, 11.33, 11.33, 11.33, 11.33, 11.33, 11.28, 11.28, 11.28, 11.28, 11.28, 10.94, 10.94, 10.69, 10.65, 10.65, 10.65, 10.3, 10.59, 10.23, 10.01, 10.51, 10.15, 9.86, 9.76, 9.21, 9.1, 8.55, 8.55, 8.0, 8.27, 8.38, 8.8, 10.5, 8.91, 9.24, 9.39, 9.79, 9.49, 9.24, 9.24, 9.24, 8.4, 8.4, 7.82, 7.07, 6.79, 6.79, 6.79, 6.11, 8.23, 7.87, 7.87, 8.23, 8.54, 9.2, 7.9, 9.09, 9.46, 10.4, 11.91, 12.39, 14.84, 17.66, 27.3, 26.37, 14.84, 12.2, 13.07, 13.82, 13.29, 12.92, 13.35, 13.83, 14.84, 14.79, 15.23, 15.41, 14.97, 15.09, 14.28, 14.3, 14.3, 13.86, 13.86, 13.86, 10.13, 10.13, 10.13, 10.13, 10.13, 10.43, 10.43, 10.75, 10.75, 10.75, 10.75, 10.75, 11.33, 11.33, 11.33, 11.33, 11.33, 11.33, 10.99, 11.28, 11.28, 11.28, 10.94, 10.94, 10.69, 10.69, 10.36, 10.65, 10.65, 10.3, 10.01, 10.01, 10.01, 10.01, 9.94, 10.23, 9.86, 9.76, 9.48, 8.93, 8.55, 8.65, 8.27, 8.93, 9.6, 9.68, 9.58, 9.36, 9.39, 9.36, 9.26, 9.11, 9.49, 9.24, 8.82, 8.72, 7.82, 7.44, 7.07, 6.7, 6.44, 6.44, 6.55, 7.87, 7.87, 8.23, 8.23, 8.23, 7.9, 9.09, 9.7, 10.05, 11.46, 11.11, 13.28, 15.71, 20.78, 30.41, 26.79, 17.19, 15.24, 15.03, 14.79, 15.54, 15.27, 15.13, 14.4, 14.99, 15.55, 15.62, 15.17, 15.2, 14.75, 14.3, 13.82, 13.81, 13.81, 13.81, 10.13, 10.13, 10.13, 10.13, 10.13, 10.13, 10.43, 10.43, 10.43, 10.43, 10.43, 10.43, 10.43, 11.33, 11.33, 11.33, 11.33, 10.99, 10.99, 11.28, 11.28, 10.94, 10.94, 10.94, 10.69, 10.69, 10.65, 10.65, 10.3, 10.06, 10.01, 10.01, 10.01, 10.01, 9.94, 9.94, 9.86, 9.76, 9.48, 9.1, 8.82, 8.82, 8.65, 8.93, 9.2, 9.68, 10.05, 9.81, 9.39, 9.36, 9.36, 9.26, 9.26, 9.06, 8.82, 8.72, 8.4, 7.82, 7.42, 7.03, 7.03, 6.82, 6.55, 7.87, 7.51, 7.87, 8.23, 7.59, 7.9, 9.32, 9.86, 9.97, 10.66, 11.57, 12.96, 14.26, 16.7, 22.78, 29.79, 25.34, 21.85, 20.63, 17.47, 17.16, 16.68, 15.69, 14.44, 14.66, 15.62, 15.65, 15.2, 14.73, 14.72, 14.16, 14.14, 13.67, 13.67, 13.67, 10.13, 10.13, 10.13, 10.13, 10.13, 10.13, 10.13, 10.13, 10.43, 10.43, 10.43, 10.43, 10.43, 10.72, 10.99, 10.99, 10.99, 10.99, 10.99, 11.28, 10.94, 10.94, 10.94, 10.69, 10.69, 10.36, 10.65, 10.65, 10.3, 10.06, 10.01, 10.01, 10.01, 10.01, 9.94, 9.94, 9.86, 9.5, 9.21, 9.48, 9.35, 8.96, 9.07, 9.32, 9.45, 9.68, 10.05, 9.81, 9.83, 9.39, 9.36, 9.36, 9.26, 9.11, 9.06, 8.72, 8.72, 8.0, 7.82, 7.42, 7.03, 6.82, 6.82, 6.18, 7.87, 7.87, 8.82, 9.04, 8.93, 9.45, 10.58, 9.76, 10.22, 11.12, 12.02, 12.79, 14.42, 17.89, 21.94, 25.19, 26.39, 25.94, 23.32, 18.51, 16.68, 15.96, 15.37, 14.68, 15.2, 14.75, 15.15, 13.29, 13.59, 13.55, 13.5, 13.44, 13.44, 13.44, 9.5, 9.5, 10.13, 10.13, 10.13, 10.13, 10.13, 10.13, 10.13, 10.43, 10.43, 10.43, 10.43, 10.72, 10.72, 10.99, 10.99, 10.99, 10.99, 11.28, 10.94, 10.69, 10.69, 10.69, 10.69, 10.36, 10.65, 10.3, 10.06, 9.72, 10.01, 10.01, 10.01, 10.01, 9.66, 9.94, 9.86, 9.3, 9.21, 9.48, 9.1, 9.35, 9.2, 9.32, 9.55, 9.68, 10.05, 10.18, 10.25, 9.83, 9.83, 9.36, 9.36, 9.26, 9.11, 8.82, 8.72, 8.3, 8.3, 7.76, 7.03, 6.44, 6.44, 6.18, 6.18, 9.13, 9.13, 8.6, 9.11, 9.76, 9.76, 9.77, 10.22, 11.12, 11.88, 12.79, 14.16, 15.38, 17.23, 18.33, 22.94, 29.71, 28.88, 21.71, 18.02, 16.87, 16.3, 16.08, 14.75, 14.71, 14.07, 12.63, 12.89, 12.82, 12.82, 12.72, 12.72, 12.72, 9.5, 9.5, 9.5, 9.82, 9.82, 9.82, 10.13, 10.13, 10.13, 10.13, 10.13, 10.43, 10.43, 10.72, 10.72, 10.72, 10.72, 10.72, 10.72, 11.03, 10.69, 10.69, 10.69, 10.69, 10.36, 10.36, 10.65, 10.06, 10.06, 9.72, 10.01, 10.01, 10.01, 9.66, 9.66, 9.94, 9.59, 9.3, 9.21, 9.21, 9.1, 9.35, 9.6, 9.32, 9.55, 9.75, 9.89, 10.05, 10.26, 10.28, 9.83, 9.83, 9.81, 9.26, 8.67, 8.63, 8.4, 8.3, 8.3, 7.76, 7.76, 7.35, 6.8, 6.44, 5.82, 9.13, 8.72, 9.21, 8.72, 8.63, 9.11, 9.6, 10.47, 11.4, 12.31, 12.79, 13.7, 14.47, 15.18, 15.91, 18.6, 25.9, 28.41, 24.9, 21.03, 18.21, 16.92, 16.09, 15.62, 13.39, 13.32, 12.89, 12.1, 12.1, 12.1, 11.97, 11.97, 11.97, 9.5, 9.5, 9.5, 9.5, 9.5, 9.82, 9.82, 10.13, 10.13, 10.13, 10.13, 10.13, 10.43, 10.72, 10.72, 10.72, 10.72, 10.72, 10.72, 10.69, 10.69, 10.69, 10.69, 10.69, 10.36, 10.36, 10.3, 10.06, 10.06, 9.72, 10.01, 10.01, 9.66, 9.66, 9.66, 9.94, 9.59, 9.3, 9.58, 9.21, 9.1, 9.35, 9.35, 9.47, 9.32, 9.75, 9.89, 10.05, 10.18, 10.26, 10.28, 10.28, 9.81, 9.81, 9.26, 8.63, 8.63, 8.3, 8.3, 7.89, 7.76, 7.35, 6.8, 6.4, 5.82, 8.72, 8.72, 8.72, 9.13, 8.63, 9.63, 9.63, 10.91, 11.4, 11.88, 12.31, 13.23, 13.94, 14.18, 15.27, 17.07, 20.97, 25.06, 24.79, 22.83, 19.95, 17.36, 15.65, 13.29, 12.56, 11.99, 11.41, 11.77, 11.77, 11.6, 11.6, 11.6, 11.6, 9.5, 9.5, 9.5, 9.5, 9.5, 9.82, 9.82, 9.82, 9.82, 9.82, 10.13, 10.13, 10.13, 10.43, 10.72, 10.72, 10.4, 10.4, 10.4, 10.69, 10.69, 10.69, 10.69, 10.36, 10.36, 10.36, 10.06, 10.06, 10.06, 9.72, 10.01, 10.01, 9.66, 9.42, 9.71, 9.37, 9.37, 9.66, 9.3, 9.21, 9.1, 9.35, 9.2, 9.47, 9.72, 9.55, 9.75, 10.05, 10.18, 10.18, 10.26, 10.28, 10.28, 9.81, 9.26, 9.26, 8.63, 8.63, 8.14, 8.14, 8.06, 7.35, 6.8, 6.8, 6.21, 7.6, 8.22, 8.15, 8.79, 8.79, 9.54, 9.77, 10.47, 11.12, 12.01, 12.47, 12.79, 13.23, 13.67, 14.31, 16.12, 17.58, 19.99, 24.28, 23.11, 20.6, 14.75, 13.59, 12.1, 10.81, 9.66, 9.66, 9.66, 10.04, 10.04, 10.81, 10.81, 10.81, 9.5, 8.87, 9.5, 9.5, 9.5, 9.5, 9.82, 9.82, 9.82, 9.82, 9.82, 10.13, 10.13, 10.13, 10.4, 10.4, 10.4, 10.4, 10.4, 10.69, 10.69, 10.69, 10.36, 10.36, 10.36, 10.65, 10.06, 10.06, 10.06, 9.72, 10.01, 9.66, 9.42, 9.42, 9.37, 9.37, 9.37, 9.66, 9.3, 9.21, 9.1, 9.1, 9.2, 9.47, 9.32, 9.55, 9.75, 9.93, 10.05, 10.18, 9.81, 9.83, 9.83, 9.81, 9.8, 9.26, 8.8, 8.63, 8.14, 8.14, 8.06, 7.63, 7.53, 7.12, 6.7, 8.0, 8.22, 8.63, 8.79, 8.79, 8.79, 9.6, 9.77, 10.73, 11.57, 12.47, 12.75, 13.19, 13.44, 14.53, 14.73, 16.12, 17.02, 22.08, 25.88, 18.76, 15.2, 13.38, 11.13, 11.03, 9.17, 7.18, 7.52, 8.22, 8.64, 9.42, 9.42, 9.42, 8.87, 8.87, 8.87, 9.21, 9.5, 9.5, 9.5, 9.82, 9.82, 9.82, 9.82, 9.82, 9.82, 9.82, 10.12, 10.4, 10.4, 10.4, 10.4, 10.69, 10.69, 10.69, 10.36, 10.36, 10.36, 10.06, 10.06, 10.06, 9.72, 9.72, 10.01, 9.66, 9.42, 9.37, 9.37, 9.37, 9.37, 9.3, 9.3, 9.21, 9.48, 9.1, 9.2, 9.47, 9.32, 9.55, 9.75, 9.93, 10.08, 10.18, 10.26, 9.81, 9.83, 9.83, 9.8, 9.7, 9.24, 8.8, 8.33, 8.14, 7.71, 7.63, 7.63, 7.12, 7.12, 7.12, 8.48, 8.22, 8.22, 8.15, 8.8, 9.33, 9.6, 9.77, 11.18, 12.01, 12.27, 12.51, 13.37, 14.37, 14.61, 15.04, 15.9, 20.69, 25.93, 20.12, 16.54, 14.75, 12.52, 11.62, 11.4, 8.94, 5.95, 6.41, 7.36, 8.59, 8.59, 8.59, 8.87, 8.87, 8.87, 9.21, 9.21, 9.5, 9.5, 9.5, 9.82, 9.82, 9.82, 9.82, 9.82, 9.82, 9.82, 10.12, 10.12, 10.4, 10.4, 10.69, 10.69, 10.36, 10.36, 10.36, 10.36, 10.06, 10.06, 10.06, 9.72, 9.72, 10.01, 9.42, 9.42, 9.37, 9.37, 9.37, 9.37, 9.3, 9.3, 9.21, 9.21, 9.1, 9.35, 9.47, 9.32, 9.55, 9.75, 9.93, 10.08, 10.19, 10.18, 9.81, 9.83, 9.83, 9.8, 9.8, 9.36, 8.8, 8.8, 8.33, 7.89, 7.85, 7.85, 7.81, 7.81, 7.37, 8.91, 8.91, 8.63, 8.63, 8.79, 9.21, 9.75, 9.75, 10.66, 11.35, 11.87, 12.85, 12.94, 12.94, 13.88, 14.81, 15.74, 27.27, 25.93, 20.56, 18.33, 16.54, 14.72, 12.49, 11.62, 11.4, 7.9, 5.0, 6.71, 10.0, 10.0, 10.0, 8.87, 8.87, 8.87, 8.87, 9.21, 9.21, 9.5, 9.5, 9.5, 9.82, 9.82, 9.82, 9.82, 9.82, 9.82, 10.12, 10.12, 10.4, 10.4, 10.4, 10.69, 10.36, 10.36, 10.36, 10.09, 10.06, 10.06, 10.06, 9.72, 10.01, 9.66, 9.42, 9.08, 9.37, 9.37, 9.37, 9.3, 9.3, 9.3, 9.21, 9.21, 9.1, 9.35, 9.07, 9.32, 9.55, 9.75, 9.75, 9.93, 10.08, 9.75, 9.81, 9.83, 9.83, 9.83, 9.8, 9.36, 9.35, 8.8, 8.77, 8.33, 7.89, 7.85, 7.85, 7.85, 7.81, 8.24, 8.67, 9.75, 9.46, 9.46, 9.54, 9.75, 10.18, 9.6, 10.0, 10.8, 12.3, 12.85, 13.15, 13.59, 14.75, 19.81, 26.58, 24.41, 20.93, 18.78, 16.51, 14.9, 12.96, 11.61, 11.28, 10.6, 9.3, 10.6, 11.18, 11.18, 11.18, 8.87, 8.87, 8.87, 8.87, 8.87, 9.21, 9.21, 9.5, 9.5, 9.5, 9.82, 9.82, 9.82, 9.82, 10.12, 10.12, 10.12, 10.12, 10.4, 10.4, 10.69, 10.36, 10.36, 10.09, 10.09, 10.06, 10.06, 9.72, 9.72, 10.01, 9.42, 9.42, 9.37, 9.37, 9.37, 9.37, 9.3, 9.3, 9.3, 9.21, 9.21, 9.1, 9.35, 9.2, 9.32, 9.32, 9.55, 9.75, 9.93, 10.08, 9.75, 9.74, 9.83, 9.83, 9.83, 9.39, 9.36, 9.35, 8.9, 8.9, 8.33, 8.33, 7.89, 7.85, 8.0, 8.0, 8.24, 8.24, 10.14, 10.18, 10.62, 10.2, 10.04, 10.04, 10.18, 10.04, 10.88, 11.87, 12.66, 13.09, 13.09, 14.47, 18.14, 26.43, 24.07, 20.12, 16.95, 15.15, 13.02, 10.18, 9.04, 9.3, 10.35, 11.45, 11.03, 10.6, 10.6, 10.6, 8.87, 8.87, 8.87, 8.87, 8.87, 9.21, 9.21, 9.21, 9.5, 9.5, 9.5, 9.82, 9.82, 9.8, 9.8, 10.12, 10.12, 10.12, 10.12, 10.12, 10.12, 10.42, 10.09, 10.09, 10.09, 10.06, 10.06, 9.72, 9.72, 10.01, 9.42, 9.42, 9.37, 9.37, 9.37, 9.37, 9.3, 9.3, 9.3, 9.21, 9.21, 9.1, 8.96, 9.2, 9.2, 9.32, 9.55, 9.75, 9.93, 9.64, 9.64, 9.74, 9.83, 9.39, 9.39, 9.39, 9.39, 9.35, 9.35, 8.9, 8.45, 8.45, 8.01, 8.01, 8.0, 8.0, 7.98, 8.43, 8.43, 10.62, 10.62, 10.65, 10.66, 10.22, 10.04, 10.04, 10.22, 11.55, 12.44, 12.88, 13.33, 15.39, 18.29, 21.44, 27.71, 22.05, 16.97, 15.16, 11.55, 8.0, 7.27, 7.73, 8.85, 11.45, 12.07, 12.07, 12.07, 12.07, 8.59, 8.59, 8.87, 8.87, 8.87, 8.87, 9.21, 9.21, 9.21, 9.21, 9.5, 9.5, 9.5, 9.5, 9.5, 9.5, 10.12, 10.12, 10.12, 10.12, 10.12, 10.12, 10.09, 10.09, 10.09, 9.77, 10.06, 9.72, 9.72, 9.42, 9.42, 9.42, 9.37, 9.37, 9.37, 9.02, 9.3, 9.3, 8.94, 9.21, 9.48, 9.1, 8.96, 9.2, 9.2, 9.32, 9.55, 9.33, 9.5, 9.5, 9.64, 9.81, 9.81, 9.39, 9.39, 9.39, 9.39, 9.39, 9.35, 8.9, 8.9, 8.46, 8.45, 8.01, 8.01, 8.0, 8.0, 8.43, 8.43, 10.28, 10.28, 10.28, 9.76, 9.76, 10.04, 10.22, 9.77, 10.73, 11.62, 12.52, 13.34, 14.69, 17.2, 19.05, 27.82, 25.2, 18.88, 16.73, 13.37, 11.62, 11.95, 12.52, 12.3, 11.99, 11.6, 11.26, 11.26, 11.26, 8.59, 8.59, 8.59, 8.87, 8.87, 8.87, 8.87, 9.21, 9.21, 9.21, 9.21, 9.21, 9.5, 9.5, 9.5, 9.5, 9.8, 10.12, 10.12, 10.12, 10.12, 9.8, 9.8, 10.09, 10.09, 9.77, 10.06, 9.72, 9.72, 9.42, 9.42, 9.42, 9.37, 9.37, 9.37, 9.02, 9.3, 9.3, 9.21, 9.21, 9.48, 9.1, 8.96, 8.96, 9.2, 9.42, 9.55, 9.33, 9.33, 9.5, 9.64, 9.74, 9.81, 9.39, 9.39, 9.39, 9.39, 9.39, 8.94, 8.9, 8.9, 8.49, 8.49, 8.05, 8.01, 8.01, 8.44, 8.49, 8.49, 10.28, 10.28, 10.28, 9.76, 9.32, 9.76, 9.77, 9.77, 9.77, 10.73, 12.52, 13.34, 14.25, 16.54, 18.78, 25.03, 27.24, 20.91, 18.57, 14.97, 11.95, 11.76, 12.3, 12.39, 12.17, 11.77, 11.38, 11.38, 11.38, 8.23, 8.23, 8.59, 8.59, 8.59, 8.87, 8.87, 9.21, 9.21, 9.21, 9.21, 9.5, 9.5, 9.5, 9.5, 9.5, 9.5, 9.8, 10.12, 10.12, 10.12, 9.8, 9.8, 10.09, 10.09, 9.77, 9.77, 9.72, 9.46, 9.42, 9.42, 9.42, 9.08, 9.37, 9.37, 9.02, 9.3, 9.3, 9.21, 9.21, 9.21, 9.1, 9.35, 8.96, 9.2, 9.32, 9.55, 9.13, 9.33, 9.5, 9.64, 9.74, 9.81, 9.36, 9.39, 9.39, 9.39, 8.94, 8.94, 8.94, 8.94, 8.49, 8.49, 8.05, 8.05, 8.05, 8.49, 8.49, 8.49, 8.94, 8.94, 10.73, 10.2, 9.32, 9.32, 9.77, 9.77, 9.77, 10.66, 12.0, 12.9, 14.3, 16.09, 18.33, 25.03, 26.82, 21.88, 19.47, 16.66, 13.96, 12.14, 12.3, 12.45, 12.74, 12.18, 11.77, 11.77, 11.77, 8.23, 8.23, 8.23, 8.59, 8.59, 8.59, 8.87, 8.87, 9.21, 9.21, 9.5, 9.5, 9.5, 9.5, 9.5, 9.5, 9.5, 9.8, 9.8, 9.8, 9.8, 9.8, 9.8, 9.8, 10.09, 10.09, 9.77, 9.72, 9.46, 9.13, 9.42, 9.42, 9.08, 9.37, 9.37, 9.02, 9.3, 9.3, 9.21, 9.21, 9.21, 9.1, 9.35, 8.96, 9.2, 9.32, 9.55, 9.55, 9.33, 9.5, 9.5, 9.74, 9.28, 9.36, 9.36, 9.39, 8.94, 8.94, 8.94, 8.94, 8.94, 8.49, 8.49, 8.49, 8.49, 8.49, 8.49, 8.49, 8.49, 8.89, 9.33, 11.18, 10.28, 10.73, 9.39, 9.76, 9.77, 10.22, 10.73, 11.62, 12.52, 14.3, 15.65, 17.88, 23.25, 25.93, 23.14, 19.45, 17.1, 14.27, 13.72, 11.95, 12.3, 12.04, 12.45, 12.04, 12.04, 12.04, 8.23, 8.23, 8.23, 8.59, 8.59, 8.59, 8.59, 8.87, 9.17, 9.5, 9.5, 9.5, 9.5, 9.5, 9.5, 9.5, 9.5, 9.5, 9.8, 9.8, 9.8, 9.8, 9.8, 9.8, 10.09, 10.09, 9.77, 9.72, 9.46, 9.46, 9.42, 9.42, 9.08, 9.37, 9.37, 9.02, 9.3, 9.3, 8.94, 9.21, 9.21, 9.1, 9.1, 8.96, 9.07, 9.32, 9.32, 9.55, 9.33, 9.5, 9.62, 9.74, 9.28, 9.36, 9.36, 9.36, 8.94, 8.94, 8.94, 8.94, 8.94, 8.49, 8.49, 8.49, 8.49, 8.49, 8.49, 8.49, 8.9, 8.89, 8.73, 9.21, 8.9, 11.18, 9.39, 9.83, 9.83, 10.28, 10.73, 11.62, 12.52, 13.86, 15.15, 16.94, 20.12, 26.34, 24.46, 21.48, 17.29, 14.64, 13.65, 12.3, 12.37, 12.56, 12.56, 13.15, 13.15, 13.15, 8.23, 8.23, 8.23, 8.59, 8.59, 8.59, 8.59, 8.87, 9.17, 9.5, 9.5, 9.5, 9.5, 9.5, 9.5, 9.5, 9.5, 9.5, 9.8, 9.8, 9.8, 9.8, 9.8, 9.8, 10.09, 10.09, 9.77, 9.72, 9.46, 9.46, 9.42, 9.42, 9.08, 9.37, 9.37, 9.02, 9.3, 9.3, 8.94, 9.21, 9.21, 9.1, 9.1, 8.96, 9.07, 9.32, 9.32, 9.55, 9.33, 9.5, 9.62, 9.74, 9.28, 9.36, 9.36, 9.36, 8.94, 8.94, 8.94, 8.94, 8.94, 8.49, 8.49, 8.49, 8.49, 8.49, 8.49, 8.49, 8.9, 8.89, 8.73, 9.21, 8.9, 11.18, 9.39, 9.83, 10.28, 10.28, 10.73, 11.62, 12.52, 13.34, 14.69, 16.09, 17.43, 22.76, 23.56, 22.75, 20.75, 17.48, 13.99, 13.07, 12.8, 12.72, 13.39, 13.82, 13.82, 13.82]}, {"header": {"dx": 0.06612293990616946, "dy": 0.0552356325346848, "nx": 98, "ny": 59, "la1": 35.046912555036876, "la2": 31.78801023549047, "lo1": -121.43107172385933, "lo2": -114.95102361305473, "refTime": "2026041701", "parameterCategory": 1, "parameterNumber": 3}, "data": [-12.64, -11.66, -10.99, -10.69, -10.02, -9.73, -9.73, -9.33, -9.66, -9.23, -8.85, -7.69, -7.06, -4.81, -3.34, -1.23, 0.0, 0.0, 0.0, 0.0, 0.0, 0.0, -5.98, -11.02, -10.75, -10.68, -11.72, -10.84, -10.91, -11.11, -11.62, -12.07, -11.98, -11.28, -9.86, -8.93, -8.37, -8.34, -7.51, -6.95, -6.53, -6.31, -6.97, -7.44, -7.49, -8.77, -9.6, -8.9, -4.92, -2.72, -0.92, 0.0, 0.0, 0.0, 0.0, 0.87, 0.82, 1.68, 1.65, 1.65, 1.6, 1.64, 1.73, 1.68, 1.73, 2.44, 2.39, 1.65, 1.57, 1.57, 1.78, 0.94, 0.92, 0.82, 0.82, 0.78, 0.78, 0.0, 0.0, 0.0, 0.0, 0.0, 0.0, -0.83, -0.8, -0.75, -0.8, -0.77, -0.77, -0.77, -0.83, 0.0, 6.21, 11.64, 11.6, 11.6, 11.26, 9.96, -12.33, -11.66, -10.99, -10.69, -10.39, -9.42, -9.73, -9.73, -9.33, -9.23, -8.94, -8.94, -7.44, -5.18, -4.55, -3.19, -1.33, 0.0, 0.0, -1.58, -2.63, -2.54, -5.8, -11.71, -10.32, -10.27, -10.05, -9.63, -10.47, -11.78, -13.77, -13.41, -11.18, -10.62, -9.45, -8.15, -6.55, -6.79, -6.79, -7.74, -8.22, -8.22, -8.83, -9.27, -9.92, -10.9, -10.0, -6.81, -3.93, -2.09, -1.01, -1.04, 0.0, 0.0, 0.0, 0.0, 0.82, 0.82, 0.8, 0.8, 0.82, 0.8, 1.68, 1.68, 1.68, 1.64, 1.6, 1.65, 1.65, 1.69, 1.82, 0.99, 0.92, 0.0, 0.0, 0.0, 0.0, 0.0, 0.0, 0.0, 0.0, 0.0, 0.0, -0.83, -0.8, -0.75, -0.8, -0.77, -0.77, -0.77, -0.83, 0.0, 6.21, 11.64, 11.6, 11.6, 11.26, 9.96, -11.97, -11.66, -10.99, -10.69, -10.08, -9.42, -9.42, -9.73, -9.33, -9.23, -8.94, -8.37, -7.44, -6.21, -4.81, -3.21, -2.19, -2.33, -2.93, -2.13, -3.19, -4.65, -4.65, -11.16, -13.59, -9.32, -8.8, -9.21, -9.63, -10.91, -13.96, -15.11, -13.86, -10.28, -7.74, -8.05, -6.91, -7.15, -7.81, -9.17, -8.93, -9.36, -10.68, -11.32, -10.66, -8.84, -6.69, -4.21, -3.32, -2.31, -2.21, -1.04, -1.04, 0.0, 0.0, 0.0, 0.0, 0.0, 0.0, 0.0, 0.82, 0.84, 0.82, 0.82, 0.84, 0.82, 0.85, 0.8, 0.83, 0.87, 0.92, 0.0, 0.0, 0.0, 0.0, 0.0, 0.0, 0.0, 0.0, 0.0, -0.92, -0.89, -0.89, -0.83, -1.44, -1.44, -1.44, -1.54, -1.54, -0.83, 0.0, 6.65, 11.64, 11.2, 11.6, 11.26, 9.96, 9.17, -12.33, -11.66, -10.99, -10.37, -10.08, -9.42, -9.69, -9.69, -9.61, -10.01, -9.37, -9.1, -8.94, -6.72, -5.4, -5.2, -4.32, -3.68, -3.68, -3.68, -2.71, -3.53, -4.15, -6.2, -11.62, -11.12, -9.6, -8.79, -8.37, -9.6, -11.84, -13.79, -16.01, -16.09, -14.11, -10.8, -10.4, -9.32, -9.16, -10.48, -11.33, -11.7, -11.18, -8.4, -7.03, -5.81, -4.52, -3.47, -3.58, -2.31, -2.01, -2.21, -1.01, -1.01, -0.95, 0.0, 0.0, 0.0, 0.0, 0.0, 0.0, 0.84, 0.87, 0.82, 0.84, 0.84, 0.82, 1.53, 1.5, 1.66, 0.94, 0.0, 0.0, -0.75, -1.45, -1.58, -1.58, -0.84, -0.89, -0.92, -1.62, -1.83, -1.71, -1.71, -1.64, -1.58, -1.64, -1.64, -0.86, 1.29, 8.43, 12.03, 11.09, 10.87, 11.26, 10.3, 9.17, 7.19, -12.33, -11.66, -10.99, -10.37, -10.08, -9.42, -9.69, -9.69, -9.61, -10.01, -9.73, -9.1, -8.66, -6.94, -6.21, -6.21, -5.57, -5.2, -5.2, -5.64, -5.6, -6.44, -5.98, -5.98, -9.2, -11.84, -11.99, -11.87, -11.02, -9.77, -10.68, -11.13, -11.13, -12.52, -14.16, -14.18, -14.38, -11.28, -11.58, -12.27, -11.44, -9.17, -8.21, -6.76, -6.0, -5.33, -4.52, -3.58, -3.42, -3.42, -2.15, -2.09, -1.95, -0.98, -0.95, -0.89, 0.0, 0.0, 0.0, 0.0, 0.0, 0.87, 0.84, 1.72, 1.63, 0.87, 0.85, 0.82, 1.73, 1.91, 2.22, 1.17, 1.03, 0.0, -1.03, -1.43, -1.62, -1.77, -0.95, -1.67, -2.47, -2.54, -2.45, -2.44, -2.41, -1.64, -0.93, 0.0, 3.44, 10.43, 12.79, 11.09, 11.09, 10.41, 10.79, 9.48, 7.19, 7.19, -12.33, -11.66, -11.66, -10.65, -10.08, -10.08, -9.69, -9.69, -9.61, -9.58, -9.73, -9.17, -8.38, -7.68, -6.21, -5.98, -5.98, -6.21, -6.67, -8.02, -7.95, -9.3, -10.79, -11.12, -11.45, -11.62, -11.45, -11.87, -12.79, -12.52, -9.39, -8.94, -8.94, -10.24, -11.44, -13.37, -12.66, -10.04, -11.31, -11.02, -10.43, -10.52, -9.21, -6.64, -5.73, -5.5, -4.66, -3.58, -3.32, -3.22, -2.18, -1.02, 0.0, 0.0, 0.0, 0.0, 0.0, 0.0, 0.82, 0.82, 0.84, 0.81, 1.62, 0.84, 0.89, 0.92, 0.94, 1.83, 2.65, 2.94, 3.6, 5.14, 4.12, 2.35, 0.0, 0.0, -0.92, 0.0, 0.0, -2.02, -2.62, -2.53, -2.61, -2.51, -2.71, -1.05, 0.0, 6.9, 12.65, 13.57, 11.45, 11.6, 11.6, 11.6, 10.47, 7.44, 7.19, 6.94, -12.33, -11.66, -11.66, -10.99, -10.37, -10.08, -9.69, -9.69, -9.95, -9.58, -9.73, -9.17, -8.38, -7.18, -6.87, -6.67, -6.48, -7.18, -7.54, -7.64, -8.07, -8.85, -9.88, -11.03, -12.39, -11.62, -11.18, -11.61, -11.95, -10.66, -10.73, -8.94, -8.77, -8.99, -10.38, -12.42, -12.72, -10.41, -9.3, -9.66, -11.3, -11.26, -10.99, -8.43, -7.0, -4.66, -2.8, -2.8, -1.3, 0.0, 0.0, 1.19, 2.24, 2.02, 1.89, 1.77, 1.67, 0.84, 0.79, 0.79, 0.79, 0.84, 0.86, 0.92, 0.95, 3.05, 4.01, 4.81, 4.81, 4.54, 5.3, 5.93, 4.65, 3.38, 2.14, 1.16, 1.08, 0.0, 0.0, 0.0, -1.9, -2.82, -2.82, -2.94, -1.44, 2.37, 11.53, 13.88, 14.03, 12.71, 11.91, 12.3, 12.72, 11.5, 9.48, 7.19, 6.94, 7.26, -12.33, -11.66, -11.66, -10.99, -10.37, -10.08, -9.69, -10.02, -9.95, -10.01, -9.73, -9.2, -8.61, -8.1, -8.05, -6.84, -7.51, -7.44, -7.51, -7.82, -6.72, -6.31, -6.76, -7.43, -9.5, -11.62, -10.6, -10.6, -11.02, -11.06, -9.83, -10.73, -10.41, -9.86, -10.38, -10.7, -10.18, -10.18, -12.07, -11.62, -10.84, -10.04, -7.19, -3.36, 0.0, 0.0, 2.0, 3.16, 4.37, 5.34, 4.43, 4.38, 4.34, 3.0, 1.89, 1.77, 0.86, 0.0, 0.0, 0.0, 0.0, 0.0, 0.0, 1.11, 4.6, 7.84, 8.67, 6.8, 5.81, 4.81, 4.8, 4.3, 2.25, 1.93, 1.78, 1.67, 1.05, 1.06, 0.0, 0.0, 0.0, -1.7, -2.82, -1.38, 0.0, 14.3, 13.57, 13.88, 13.41, 12.52, 12.52, 12.79, 13.23, 11.5, 10.12, 7.54, 8.22, 9.42, -12.01, -11.66, -11.66, -10.99, -10.37, -10.08, -10.08, -10.02, -10.35, -10.01, -10.12, -9.84, -11.1, -10.38, -9.48, -9.17, -9.48, -9.02, -8.21, -8.32, -8.15, -6.87, -5.8, -5.99, -5.25, -6.45, -8.48, -8.94, -10.28, -10.73, -11.62, -13.23, -12.45, -10.37, -10.41, -9.32, -10.18, 10.0, 11.62, 11.62, 10.8, 8.85, 6.94, 6.0, 7.36, 6.88, 7.4, 9.67, 8.51, 7.71, 6.35, 4.24, 3.12, 2.18, 1.02, 0.0, 0.0, 0.0, 0.0, 0.0, 0.0, -1.05, 0.0, 8.68, 11.63, 11.7, 9.67, 7.0, 5.14, 3.93, 2.89, 1.83, 1.1, 0.0, 0.0, 0.0, 0.0, 0.0, -1.02, -1.07, -1.24, -0.99, -1.84, -2.45, -0.0, 4.24, 7.44, 9.48, 10.8, 12.27, 12.96, 12.52, 12.52, 12.04, 10.73, 9.42, 9.42, 11.2, -12.01, -11.66, -11.29, -11.29, -10.65, -10.37, -10.08, -10.02, -10.35, -10.4, -10.12, -10.43, -9.48, -10.06, -10.99, -11.09, -11.09, -11.39, -11.53, -10.94, -10.55, -10.01, -10.09, -9.42, -9.42, -5.92, -1.67, 4.0, 5.0, -8.22, -10.6, 0.0, 10.73, 7.27, 0.0, 0.0, 4.8, 8.94, 10.4, 8.85, 8.22, 8.53, 7.02, 5.77, 5.4, 6.65, 6.88, 8.06, 9.17, 7.4, 5.35, 5.19, 3.76, 2.35, 1.19, 1.1, 0.0, 0.0, 0.0, -0.93, -1.03, 0.0, 12.01, 14.39, 12.86, 12.19, 10.87, 8.43, 5.81, 3.02, 0.99, 0.0, 0.0, 0.0, -0.79, -1.51, -2.62, -2.71, -2.53, -2.81, -3.24, -3.65, -3.53, -6.7, -0.0, 2.37, 4.48, 7.51, 10.01, 10.73, 11.87, 11.03, 12.07, 12.07, 11.62, 10.73, 11.12, 11.6, -12.01, -11.29, -11.29, -11.29, -10.65, -10.37, -10.08, -10.02, -10.35, -10.06, -10.09, -10.43, -10.43, -10.12, -10.75, -10.22, -10.65, -10.79, -10.91, -11.28, -12.18, -12.99, -11.53, -10.48, -10.09, -7.44, -3.82, 4.4, 8.8, 0.0, 4.6, 9.39, 9.39, 9.33, 5.7, 3.96, 8.53, 9.3, 8.93, 8.15, 7.51, 6.4, 6.16, 5.2, 4.48, 6.7, 9.17, 8.59, 8.31, 6.6, 7.82, 8.25, 6.72, 6.72, 6.72, 6.9, 5.98, 2.54, 0.0, -2.81, 0.0, 14.19, 15.44, 14.58, 13.16, 13.82, 14.53, 13.56, 8.97, 3.96, 1.06, 0.0, -0.87, -1.62, -2.33, -4.13, -4.65, -5.6, -5.4, -4.99, -4.96, -4.6, -4.95, -10.43, -7.44, -0.0, 1.9, 5.8, 7.82, 8.53, 9.08, 9.97, 10.84, 11.62, 12.14, 12.45, 12.45, 12.72, -11.64, -11.29, -11.29, -11.29, -10.65, -10.37, -10.08, -10.02, -10.02, -10.35, -10.42, -10.11, -10.75, -10.74, -9.42, -8.51, -6.87, -7.73, -8.72, -8.3, -7.79, -7.49, -7.03, -8.06, -6.65, -4.75, -3.68, 0.0, 10.28, 10.73, 9.6, 9.6, 9.2, 8.55, 7.27, 6.44, 7.9, 8.93, 8.22, 7.85, 6.4, 6.16, 4.54, 3.53, 4.15, 8.38, 10.37, 10.73, 8.31, 8.85, 10.75, 12.33, 12.96, 14.59, 15.28, 15.38, 15.14, 10.19, 0.0, -2.72, 17.39, 18.8, 16.21, 14.65, 16.32, 18.6, 19.59, 19.41, 14.22, 8.64, 3.94, 1.89, 0.0, -1.89, -4.38, -5.8, -7.19, -7.82, -7.62, -7.69, -7.28, -6.66, -7.6, -9.61, -16.99, -2.87, -0.0, 3.36, 3.93, 6.0, 6.21, 6.44, 7.9, 11.45, 12.96, 13.15, 13.15, 12.45, -11.29, -11.29, -11.29, -11.29, -10.65, -10.37, -10.37, -10.02, -10.39, -10.39, -10.42, -10.1, -10.44, -10.43, -10.05, -9.35, -7.11, -6.27, -5.38, -5.55, -4.91, -3.87, -3.07, -1.6, -0.85, -0.8, 0.0, 1.05, 2.02, 5.8, 8.22, 7.59, 7.27, 6.17, 6.17, 7.59, 7.59, 7.9, 7.15, 6.76, 5.2, 4.72, 3.92, 3.87, 5.7, 8.93, 10.8, 10.79, 11.53, 11.9, 10.82, 12.27, 12.65, 14.79, 17.02, 16.79, 17.11, 14.31, 0.0, 5.6, 16.09, 16.7, 15.79, 14.84, 17.92, 20.05, 22.34, 22.68, 20.03, 17.7, 11.9, 6.93, 1.83, -0.96, -4.51, -6.43, -8.59, -10.63, -11.3, -10.17, -8.68, -7.82, -8.28, -8.03, -12.02, -17.43, -0.0, -0.0, 1.89, 2.21, -0.0, 2.37, 5.0, 8.53, 12.3, 13.41, 13.01, 13.01, -11.29, -11.29, -11.29, -10.65, -10.65, -10.37, -10.37, -9.69, -10.39, -10.39, -10.39, -10.1, -10.1, -10.43, -10.42, -10.02, -8.93, -7.26, -6.05, -5.31, -4.87, -4.18, -3.57, -2.72, -2.05, -0.64, 0.0, 0.0, 0.0, 0.0, 1.96, 5.2, 6.2, 5.9, 5.06, 6.42, 6.95, 8.24, 6.87, 5.32, 3.92, 2.6, 1.84, 4.6, 8.18, 9.97, 9.55, 10.41, 10.79, 11.16, 11.53, 10.79, 11.2, 11.6, 11.99, 10.41, 10.75, 6.36, 0.0, 9.48, 14.3, 15.39, 15.41, 15.36, 16.66, 16.24, 15.85, 17.19, 16.81, 16.12, 16.31, 10.38, 3.82, 0.0, -2.71, -7.54, -11.8, -14.46, -14.85, -12.11, -9.12, -7.38, -5.98, -3.16, -6.35, -2.65, 0.0, -0.0, -0.0, -2.15, -2.15, -0.0, 2.28, 5.8, 10.79, 13.41, 13.41, 13.01, -11.29, -11.29, -11.29, -10.65, -10.65, -10.65, -10.37, -9.97, -10.08, -10.39, -10.39, -10.08, -10.08, -10.13, -10.42, -10.02, -9.61, -8.19, -7.2, -6.47, -5.75, -4.43, -3.95, -3.19, -2.47, -1.86, -0.6, 0.0, 0.0, 0.0, 0.0, 1.33, 2.37, 3.82, 4.6, 6.17, 7.59, 6.95, 5.75, 3.61, 1.33, 1.84, 2.02, 6.95, 8.8, 9.64, 10.08, 10.84, 10.4, 10.04, 10.79, 10.41, 9.3, 7.59, 7.27, 7.59, 2.82, 0.0, 0.0, 10.39, 12.3, 12.14, 11.64, 11.16, 11.16, 11.16, 12.27, 12.65, 11.38, 12.31, 10.8, 8.77, 2.55, 16.54, 10.41, 14.42, 0.0, -12.33, -7.6, -2.79, 0.0, 0.0, 1.42, 1.26, 1.21, 1.89, 3.36, 0.0, -3.47, -7.59, -4.52, -1.77, 1.98, 7.78, 11.99, 12.96, 12.58, 12.58, -11.29, -10.99, -10.99, -10.65, -10.65, -10.65, -9.97, -9.97, -10.08, -10.08, -10.08, -10.08, -10.08, -9.77, -10.05, -10.05, -10.02, -9.61, -8.14, -7.4, -6.19, -4.95, -4.1, -3.55, -2.4, -1.17, -0.6, 0.0, 0.0, 0.71, 0.0, 0.0, 0.96, 0.0, 1.69, 4.44, 6.58, 5.98, 5.52, 1.76, 1.22, 2.7, 6.17, 8.8, 9.13, 9.64, 10.08, 9.96, 9.6, 10.0, 8.22, 8.85, 9.66, 8.22, 6.17, 4.4, 2.1, 0.0, 3.79, 10.47, 10.25, 8.59, 7.59, 5.95, 5.29, 5.98, 7.73, 8.1, 7.36, 8.4, 6.81, 0.0, -4.34, 14.54, 14.75, 16.74, 15.54, 12.96, 9.92, 9.2, 7.58, 6.26, 3.12, 1.38, 0.0, -1.39, 0.0, 0.0, -12.07, -11.6, -6.2, 7.54, 11.6, 13.28, 12.96, 12.35, 11.87, 11.87, -11.29, -11.29, -10.99, -10.65, -10.65, -10.65, -9.97, -9.97, -10.08, -10.08, -10.08, -10.08, -9.77, -9.77, -9.77, -10.05, -9.66, -9.35, -8.88, -8.14, -6.89, -5.45, -4.9, -3.52, -1.74, -1.19, -0.57, 0.0, 0.0, 0.0, 0.0, 0.0, 0.0, 0.0, 0.0, 2.13, 4.05, 3.98, 2.02, 1.93, 2.02, 6.32, 8.23, 8.0, 9.55, 10.08, 9.55, 9.6, 8.58, 8.58, 8.58, 8.94, 8.22, 8.22, 7.9, 6.98, 5.0, 5.4, 6.21, 8.73, 9.17, 6.87, 5.7, 3.7, 2.58, 3.14, 3.82, 3.98, 5.15, 2.87, 0.0, -4.55, -4.23, 9.2, 13.28, 11.96, 12.38, 11.6, 10.91, 9.61, 8.69, 5.65, 1.54, 0.0, -2.62, -4.6, -2.1, -9.17, -13.01, -0.0, 12.87, 12.14, 12.45, 13.41, 13.31, 11.71, 11.92, 11.92, -11.66, -11.29, -11.29, -10.65, -10.65, -10.65, -10.25, -9.97, -10.37, -10.08, -9.77, -9.77, -9.77, -9.77, -9.77, -9.39, -9.66, -9.35, -8.93, -7.71, -6.71, -5.98, -4.77, -3.55, -1.79, -1.19, -1.18, -1.19, -1.19, -1.27, -1.32, -1.39, -1.51, -1.51, 0.0, 0.0, 0.0, 0.0, 0.0, 0.0, 4.4, 8.93, 8.55, 9.2, 9.6, 9.96, 8.58, 8.58, 7.59, 7.59, 7.59, 9.2, 9.2, 9.2, 8.38, 7.59, 7.9, 7.15, 7.9, 8.22, 6.5, 5.32, 4.05, 2.7, 2.58, 2.06, 1.05, 1.93, 1.91, 2.21, 0.0, 0.0, 2.25, 4.55, 6.47, 7.78, 8.97, 9.64, 9.0, 8.4, 6.58, 4.7, 0.0, -2.91, -3.96, -8.85, -10.12, -9.17, -11.5, 6.4, 14.19, 12.96, 12.07, 12.47, 12.66, 12.14, 11.6, 11.6, -11.66, -11.29, -11.29, -10.94, -10.65, -10.65, -10.65, -10.33, -10.05, -9.77, -9.77, -9.77, -9.77, -9.77, -9.77, -10.46, -9.42, -9.39, -8.28, -7.05, -6.52, -6.66, -6.52, -5.56, -3.95, -3.52, -2.9, -3.95, -3.2, -3.27, -2.88, -2.39, -1.63, -1.66, -1.71, -1.77, -1.98, -2.16, -1.39, 0.0, 3.53, 6.97, 7.9, 9.3, 10.8, 8.94, 8.58, 6.44, 6.44, 7.59, 9.2, 9.96, 9.6, 9.6, 8.93, 8.24, 7.59, 7.59, 7.9, 6.5, 5.54, 4.4, 2.95, 2.04, 0.93, 1.04, 1.11, 3.7, 5.54, 3.93, 3.68, 4.14, 4.83, 4.21, 4.08, 2.45, 1.88, 0.95, 1.13, 2.44, 0.0, 0.0, 0.0, 0.0, 0.0, 0.0, -4.24, -4.55, -8.38, 9.8, 14.47, 13.8, 12.02, 11.44, 13.15, 12.79, 12.03, 12.03, -11.66, -11.29, -11.29, -10.65, -10.65, -10.65, -10.33, -10.33, -10.05, -10.05, -9.77, -9.77, -9.77, -9.77, -9.77, -9.39, -9.42, -9.44, -9.67, -8.43, -8.25, -8.11, -8.37, -8.62, -7.93, -7.23, -6.2, -5.93, -5.72, -5.41, -4.19, -2.88, -2.02, -1.08, -2.06, -3.29, -4.28, -4.48, -2.28, 0.0, 2.81, 4.39, 6.45, 6.98, 8.53, 8.22, 6.17, 6.17, 6.17, 8.23, 9.55, 9.75, 9.75, 9.6, 8.34, 8.23, 7.9, 7.68, 6.59, 5.4, 3.19, 1.58, 1.52, 1.52, 1.09, 1.22, 5.21, 8.73, 9.42, 7.59, 6.64, 5.78, 5.84, 3.67, 0.79, -0.81, -3.32, -4.41, -4.01, -2.54, -1.27, 0.0, 0.0, 0.0, 1.33, 2.4, 2.4, 2.4, 0.0, 9.84, 12.87, 13.37, 12.71, 12.42, 12.79, 12.89, 12.0, 12.0, -11.66, -11.66, -11.29, -10.65, -10.65, -10.65, -10.33, -10.33, -10.05, -10.05, -9.77, -9.77, -9.77, -9.48, -9.48, -9.75, -9.39, -9.44, -9.17, -10.05, -9.54, -9.09, -9.47, -9.47, -8.79, -7.7, -6.4, -5.87, -5.99, -5.06, -3.92, -3.32, -2.48, -1.33, -1.55, -4.39, -5.6, -6.4, -3.82, -1.43, 0.0, 1.5, 3.68, 6.21, 6.44, 8.53, 6.17, 6.17, 6.95, 9.13, 9.7, 10.14, 9.75, 9.2, 9.6, 8.72, 8.82, 8.31, 7.02, 4.58, 3.19, 1.64, 1.58, 0.0, 2.7, 6.58, 9.4, 10.0, 10.73, 10.12, 10.87, 9.75, 8.25, 2.61, -1.56, -3.96, -8.96, -10.13, -8.28, -6.6, -5.04, -1.34, 0.0, 0.0, 1.25, 2.48, 3.65, 4.38, 6.64, 8.53, 11.21, 12.6, 13.28, 12.39, 11.9, 11.1, 11.1, 11.1, -11.66, -11.66, -11.29, -10.65, -10.65, -10.65, -10.33, -10.33, -10.05, -10.05, -9.77, -9.77, -9.48, -9.48, -9.48, -9.75, -10.05, -9.79, -9.79, -9.84, -9.2, -8.57, -8.58, -8.83, -8.79, -7.66, -6.52, -5.21, -4.52, -3.64, -3.47, -2.81, -2.06, -1.2, -1.77, -4.65, -7.82, -7.73, -6.43, -3.14, 0.0, 0.0, 1.91, 3.82, 6.21, 6.45, 4.8, 4.4, 8.8, 9.64, 9.7, 9.7, 9.13, 9.33, 9.2, 10.0, 9.97, 10.12, 7.85, 6.2, 3.77, 2.71, 1.33, 2.82, 7.27, 9.4, 10.08, 10.38, 10.4, 10.55, 12.13, 15.04, 11.5, 2.59, -6.15, -7.79, -10.83, -11.77, -11.62, -9.49, -7.98, -4.54, -1.37, 0.0, 0.0, 1.47, 2.89, 6.17, 8.43, 8.22, 10.8, 12.21, 12.95, 12.09, 11.29, 10.77, 11.8, 11.8, -11.66, -11.66, -11.66, -10.65, -10.65, -10.65, -10.33, -10.33, -10.05, -10.05, -10.05, -9.77, -9.48, -9.48, -9.48, -9.75, -10.05, -9.77, -9.77, -9.84, -9.19, -8.16, -7.8, -8.2, -8.18, -7.7, -7.0, -5.85, -4.7, -4.38, -3.41, -2.87, -2.37, -2.81, -2.54, -3.44, -6.44, -7.82, -7.19, -3.44, -1.77, 0.0, 0.0, 1.98, 5.98, 6.45, 4.8, 6.95, 8.8, 9.64, 9.64, 9.55, 9.13, 9.75, 9.75, 9.6, 9.77, 10.99, 9.84, 6.95, 5.72, 4.05, 5.7, 7.9, 9.4, 10.08, 10.5, 9.2, 8.99, 9.48, 11.12, 12.01, 1.37, 0.0, -2.69, -5.69, -7.9, -10.92, -12.22, -11.06, -9.31, -8.11, -5.23, -1.46, 0.0, 3.2, 5.34, 9.09, 12.01, 12.11, 10.73, 10.99, 11.17, 11.03, 10.12, 10.12, 10.43, 10.43, -11.66, -11.66, -11.66, -11.33, -10.65, -10.65, -10.33, -10.33, -10.05, -10.05, -10.05, -9.48, -9.48, -9.48, -9.75, -9.75, -9.75, -9.77, -9.48, -9.47, -9.45, -8.37, -7.73, -7.53, -7.53, -7.76, -7.06, -6.56, -5.88, -5.21, -4.07, -3.73, -3.35, -2.87, -3.34, -3.29, -5.4, -6.43, -5.8, -3.44, -1.77, -1.71, 0.0, 0.0, 3.68, 5.75, 6.94, 8.22, 10.0, 9.6, 10.79, 9.96, 9.55, 9.64, 9.75, 9.75, 9.21, 10.62, 11.26, 9.46, 6.32, 5.44, 7.21, 9.1, 9.55, 9.66, 9.77, 10.4, 8.18, 8.23, 5.7, -2.37, 0.0, 5.22, 6.31, 4.39, 1.83, -1.83, -7.1, -10.43, -10.12, -8.72, -7.43, -3.58, 0.0, 3.47, 7.32, 10.43, 11.54, 12.7, 11.29, 10.47, 9.8, 9.5, 9.8, 9.8, 10.59, 10.59, -11.66, -11.66, -11.66, -11.33, -11.03, -11.03, -10.05, -10.05, -10.05, -10.05, -9.77, -9.48, -9.48, -9.75, -9.75, -9.75, -9.75, -9.48, -9.75, -9.47, -9.73, -8.79, -8.4, -8.16, -7.76, -7.1, -7.32, -7.06, -6.6, -5.92, -5.25, -4.62, -4.28, -3.9, -3.47, -3.73, -4.33, -4.81, -5.8, -4.93, -3.32, -1.71, 0.0, 0.0, 1.91, 3.68, 3.82, 4.4, 5.95, 6.98, 9.86, 11.4, 10.08, 10.08, 9.55, 9.13, 9.33, 9.11, 11.03, 9.67, 7.59, 6.32, 6.79, 8.34, 9.13, 9.24, 9.77, 9.58, 8.82, 5.45, 1.33, -1.3, 1.68, 8.22, 8.91, 8.81, 7.34, 4.27, 0.0, -4.98, -9.06, -9.44, -8.43, -4.0, 1.58, 5.81, 8.18, 10.43, 11.54, 12.22, 12.63, 11.06, 8.49, 9.5, 8.91, 9.48, 9.69, 9.69, -11.66, -11.66, -11.66, -11.33, -11.03, -11.03, -11.03, -10.05, -10.05, -9.77, -9.77, -9.48, -9.48, -9.75, -9.75, -9.75, -9.75, -9.48, -9.75, -9.47, -9.47, -9.47, -9.07, -8.81, -7.73, -7.5, -7.1, -6.84, -6.84, -6.64, -5.96, -5.28, -5.32, -4.81, -4.33, -3.96, -4.17, -4.93, -4.81, -5.08, -2.93, -1.5, -1.5, 0.0, 0.0, 1.64, 3.19, 3.07, 3.07, 5.75, 9.6, 10.22, 11.91, 11.4, 10.6, 10.18, 9.21, 9.21, 10.08, 9.58, 8.22, 7.27, 6.64, 7.58, 8.58, 9.13, 10.0, 9.58, 7.36, 5.21, 2.19, 0.0, 0.0, 3.83, 9.45, 10.72, 9.61, 5.61, 1.71, -2.24, -7.36, -9.22, -7.2, 0.0, 4.52, 8.05, 10.75, 10.43, 11.1, 10.97, 12.24, 11.48, 9.54, 9.34, 9.27, 9.48, 8.61, 8.61, -11.36, -11.36, -11.36, -11.03, -11.03, -11.03, -11.03, -10.73, -9.77, -9.77, -9.77, -9.48, -9.48, -9.48, -9.75, -9.75, -9.75, -9.75, -9.75, -9.47, -9.47, -9.47, -9.47, -8.81, -8.4, -7.73, -7.06, -6.64, -6.64, -6.89, -6.2, -6.25, -6.04, -5.83, -5.36, -5.17, -4.68, -4.37, -4.6, -4.32, -4.47, -3.34, -1.28, 0.0, 0.0, 1.39, 1.39, 1.33, 1.52, 3.82, 9.2, 10.66, 10.47, 10.41, 11.18, 10.32, 9.64, 9.39, 8.41, 8.8, 8.22, 6.77, 7.9, 8.21, 10.05, 8.99, 9.3, 7.36, 6.2, 4.32, 2.16, 0.0, 0.0, 1.03, 4.71, 10.55, 8.33, 4.4, 0.0, -3.61, -7.73, -9.8, -3.69, 6.6, 8.31, 10.43, 11.06, 11.06, 11.3, 10.43, 10.75, 10.22, 10.63, 9.66, 8.85, 7.89, 7.43, 7.43, -11.36, -11.36, -11.36, -11.03, -11.03, -11.03, -11.03, -10.73, -9.77, -9.77, -9.77, -9.48, -9.48, -9.75, -9.75, -9.75, -9.75, -9.75, -9.75, -9.75, -9.47, -9.47, -9.2, -8.81, -8.81, -8.16, -7.5, -7.76, -7.1, -6.46, -5.8, -6.04, -6.3, -6.08, -5.86, -5.4, -5.2, -4.72, -4.95, -4.66, -4.4, -3.53, -2.19, 0.0, 0.0, 0.0, 0.0, 0.0, 0.0, 3.65, 9.45, 10.04, 9.63, 10.05, 9.63, 10.75, 10.08, 9.21, 8.6, 8.4, 7.56, 6.69, 7.59, 8.55, 9.2, 9.46, 7.36, 4.99, 3.25, 2.08, 1.04, 0.0, -0.86, -1.9, -1.05, -1.28, -1.53, -1.4, -3.1, -6.64, -9.6, -9.17, 7.93, 8.66, 7.54, 8.51, 9.87, 11.38, 10.52, 9.73, 8.85, 8.43, 8.94, 9.67, 9.41, 8.68, 7.68, 7.68, -11.36, -11.36, -11.36, -11.03, -11.03, -11.03, -10.73, -10.73, -10.13, -10.13, -9.77, -9.77, -9.48, -9.75, -9.75, -9.75, -9.75, -9.75, -9.48, -9.48, -9.47, -9.2, -9.48, -9.48, -8.83, -8.57, -8.18, -7.76, -7.1, -6.88, -6.46, -6.04, -5.83, -6.08, -5.86, -5.86, -5.2, -5.23, -4.76, -4.48, -4.15, -4.01, -2.82, -1.39, 0.0, 0.0, -0.85, -2.13, 0.0, 5.06, 9.04, 9.21, 8.8, 8.54, 9.45, 9.54, 10.96, 10.52, 9.33, 8.8, 8.55, 7.27, 7.81, 8.72, 9.3, 8.22, 7.42, 5.7, 3.11, 1.02, 0.0, 0.0, 0.0, -2.63, -5.18, -7.8, -9.4, -5.3, -3.01, -1.93, 0.0, 1.23, 3.96, 5.11, 6.2, 7.25, 8.05, 9.27, 8.46, 8.46, 7.54, 7.0, 6.45, 7.0, 8.65, 7.84, 6.8, 6.8, -11.05, -11.05, -11.05, -10.73, -10.73, -10.73, -10.73, -10.73, -10.43, -10.13, -10.13, -9.77, -9.48, -9.48, -9.75, -9.48, -9.75, -9.48, -9.48, -9.48, -9.48, -9.48, -9.48, -9.21, -9.12, -8.85, -8.46, -8.2, -7.8, -6.88, -6.68, -6.46, -6.04, -5.62, -5.86, -5.64, -5.44, -5.23, -4.76, -4.8, -4.54, -4.23, -3.39, -2.95, -1.02, 0.0, -1.28, -1.11, 1.54, 7.56, 8.0, 7.13, 7.64, 7.81, 8.18, 9.46, 9.32, 9.11, 10.18, 8.8, 8.55, 7.9, 8.15, 8.49, 7.59, 8.07, 8.35, 8.22, 5.63, 2.39, 0.0, 1.11, 3.07, 0.94, -2.72, -6.8, -7.44, -4.92, -1.13, 1.18, 1.23, 2.3, 2.32, 4.2, 5.92, 7.08, 7.16, 6.4, 6.17, 5.79, 5.06, 4.8, 4.54, 5.98, 5.64, 7.04, 6.36, 6.36, -11.05, -11.05, -11.05, -10.73, -10.73, -10.73, -10.73, -10.73, -10.43, -10.13, -10.13, -10.13, -9.48, -9.48, -9.48, -9.48, -9.48, -9.48, -9.48, -9.48, -9.48, -9.48, -9.21, -9.21, -8.85, -8.85, -8.58, -7.95, -7.55, -7.13, -7.13, -7.13, -6.46, -6.27, -5.86, -5.64, -5.23, -5.23, -4.8, -4.8, -4.54, -4.05, -3.69, -3.51, -2.83, -2.33, -1.14, 0.0, 3.7, 5.72, 6.11, 5.46, 5.46, 6.64, 7.81, 8.63, 9.11, 9.54, 8.79, 9.2, 8.55, 8.24, 7.9, 6.98, 6.69, 6.4, 7.27, 8.53, 6.87, 4.4, 2.98, 4.18, 6.18, 6.87, 3.02, -1.69, -4.19, -4.29, -2.8, 0.0, 0.89, 1.67, 2.98, 4.1, 6.02, 6.48, 6.48, 5.81, 5.1, 3.95, 3.38, 2.64, 2.8, 2.8, 4.03, 4.42, 5.26, 5.26, -11.38, -11.38, -11.05, -11.05, -10.73, -10.73, -10.73, -10.73, -10.43, -10.13, -10.13, -10.13, -10.13, -9.48, -9.48, -9.48, -9.48, -9.48, -9.48, -9.48, -9.48, -9.48, -9.21, -9.49, -8.85, -8.85, -8.86, -8.22, -8.18, -6.92, -7.55, -7.55, -7.13, -6.5, -6.27, -5.86, -5.67, -5.23, -5.26, -5.05, -4.35, -4.6, -4.31, -3.78, -3.36, -2.71, -0.93, 0.98, 2.97, 3.81, 4.2, 4.2, 4.66, 5.46, 6.64, 8.63, 8.79, 8.79, 8.4, 8.4, 8.93, 8.24, 6.58, 5.72, 5.98, 6.01, 4.96, 5.29, 5.2, 4.4, 4.78, 4.99, 5.8, 5.65, 6.27, 0.87, -1.72, -2.72, -2.72, -0.92, 0.0, 2.31, 3.76, 4.46, 5.0, 5.13, 5.13, 4.58, 3.59, 3.1, 1.67, 0.87, 0.89, 0.95, 2.07, 2.15, 2.72, 2.72, -11.06, -11.06, -11.38, -11.05, -10.73, -10.73, -10.73, -10.73, -10.43, -10.43, -10.13, -10.13, -10.13, -10.13, -9.48, -9.48, -9.48, -9.48, -9.48, -9.48, -9.48, -9.21, -9.49, -9.49, -8.85, -8.86, -8.86, -8.59, -8.23, -8.18, -7.59, -7.57, -7.57, -7.16, -6.5, -6.29, -5.64, -5.23, -5.26, -5.05, -5.05, -4.6, -4.31, -3.95, -3.51, -2.71, -1.84, 0.0, 0.93, 2.04, 2.97, 4.2, 4.2, 5.46, 7.13, 7.96, 8.21, 8.4, 7.96, 7.96, 7.64, 7.27, 7.9, 6.3, 6.3, 6.58, 5.21, 4.96, 3.98, 3.19, 4.8, 4.44, 2.94, 1.0, 1.19, 1.92, 1.61, 0.84, 0.81, 0.79, 1.48, 2.2, 2.91, 3.61, 3.38, 3.55, 3.63, 2.83, 1.73, 1.67, 0.84, 0.0, 0.0, 0.0, 0.0, 1.17, 1.34, 1.34, -11.06, -11.06, -11.06, -11.38, -11.07, -11.07, -11.07, -10.73, -10.43, -10.43, -10.13, -10.13, -10.13, -10.13, -9.84, -9.84, -9.84, -9.48, -9.48, -9.48, -9.21, -9.49, -9.49, -9.22, -9.22, -8.86, -8.86, -8.59, -8.86, -8.22, -7.59, -7.59, -7.59, -7.59, -6.94, -6.53, -5.86, -5.67, -5.48, -4.8, -5.05, -4.8, -4.87, -4.6, -3.95, -3.51, -1.84, -0.93, 0.0, 0.98, 2.04, 2.97, 4.2, 5.46, 6.64, 7.51, 7.51, 7.51, 7.58, 7.96, 9.3, 8.58, 7.59, 7.59, 6.64, 6.3, 6.3, 4.88, 3.98, 3.68, 5.0, 5.4, 2.62, 0.0, 0.0, 2.17, 4.77, 4.91, 4.42, 2.88, 1.39, 0.72, 0.74, 0.77, 1.58, 1.52, 1.53, 0.76, 0.0, 0.0, 0.0, 0.0, 0.0, 0.0, 0.0, 0.0, 1.34, 1.34, -11.06, -11.06, -11.06, -11.06, -11.06, -11.07, -11.07, -10.76, -10.43, -10.43, -10.43, -9.84, -10.13, -10.13, -10.13, -10.13, -10.13, -10.13, -9.77, -9.49, -9.49, -9.49, -9.49, -9.22, -9.5, -8.86, -8.86, -8.59, -8.86, -8.49, -7.83, -7.59, -7.33, -7.22, -6.96, -6.96, -6.56, -5.89, -5.67, -5.26, -5.05, -4.54, -4.6, -4.31, -3.95, -3.25, -2.71, -0.93, 0.0, 0.0, 0.98, 2.04, 4.2, 5.46, 6.64, 6.73, 6.73, 6.73, 6.73, 6.79, 6.79, 7.9, 7.59, 7.59, 7.59, 5.29, 5.46, 4.23, 3.77, 3.68, 4.48, 4.39, 2.72, 0.84, 0.0, 2.02, 4.65, 5.6, 5.47, 4.06, 1.43, 0.0, 0.0, 0.0, 0.0, 0.0, 0.0, 0.0, 0.0, -0.86, -0.89, -0.96, -0.96, -0.89, 0.0, 0.99, 2.38, 2.38, -11.06, -11.06, -11.06, -11.06, -11.06, -11.06, -10.76, -10.76, -10.76, -10.43, -10.43, -10.13, -9.84, -10.13, -10.13, -10.13, -10.13, -9.84, -9.49, -9.49, -9.49, -9.49, -9.22, -9.5, -9.21, -8.86, -8.86, -8.59, -8.86, -8.86, -8.22, -7.57, -6.94, -6.96, -6.96, -6.7, -6.31, -6.31, -5.67, -5.26, -5.26, -5.05, -4.6, -4.31, -3.69, -3.25, -2.49, -1.84, -0.89, 0.0, 0.98, 2.04, 4.2, 4.98, 6.64, 6.64, 6.32, 6.32, 6.32, 6.01, 6.32, 6.79, 7.9, 5.7, 5.1, 5.75, 4.05, 3.77, 2.6, 3.92, 3.44, 4.65, 4.0, 3.59, 1.87, 0.92, 1.87, 3.85, 3.76, 2.29, 0.8, 0.0, 0.0, 0.0, 0.0, 0.0, -0.98, -0.95, -0.92, -0.99, -0.99, 0.0, 0.0, 0.0, 1.9, 3.57, 3.22, 3.22, -10.75, -10.75, -10.75, -10.75, -11.06, -11.06, -11.06, -10.76, -10.76, -10.45, -10.43, -10.13, -10.13, -9.84, -9.84, -9.84, -9.84, -9.84, -9.84, -9.49, -9.49, -9.22, -9.5, -9.5, -9.21, -8.86, -8.86, -8.59, -8.59, -8.59, -8.22, -7.96, -7.59, -6.96, -6.7, -6.58, -6.33, -6.33, -6.33, -5.69, -5.04, -4.84, -4.6, -4.44, -3.53, -3.95, -3.25, -2.49, -1.76, 0.0, 0.0, 2.04, 4.2, 5.63, 5.63, 5.89, 5.89, 5.89, 6.01, 6.01, 6.32, 6.01, 6.44, 5.7, 5.32, 3.53, 4.05, 3.61, 3.77, 3.77, 3.68, 4.81, 6.17, 5.26, 4.03, 0.99, 0.0, 0.0, -0.97, 0.0, 0.0, 0.77, 0.0, 0.0, 0.0, 0.0, -0.86, -0.99, 0.0, 0.0, 1.1, 2.18, 1.96, 3.12, 2.9, 3.57, 3.57, 4.38, -11.05, -11.05, -10.75, -10.75, -10.75, -10.75, -11.06, -11.06, -10.45, -10.45, -10.45, -10.45, -10.13, -10.13, -9.84, -9.84, -9.84, -9.84, -9.84, -9.49, -9.22, -9.5, -9.5, -9.5, -9.21, -9.21, -9.16, -8.87, -8.59, -8.87, -8.87, -8.23, -7.59, -6.94, -6.96, -6.31, -6.33, -6.33, -6.08, -5.69, -5.7, -5.29, -4.88, -4.44, -3.37, -3.53, -3.95, -3.25, -1.84, 0.0, 0.98, 3.11, 4.56, 5.21, 5.21, 4.96, 5.36, 5.89, 5.59, 5.59, 6.01, 6.01, 7.59, 5.46, 4.05, 3.98, 3.98, 4.05, 4.8, 5.0, 5.0, 5.6, 5.02, 4.67, 6.39, 5.85, 0.0, -1.78, -3.35, -2.48, -0.77, 0.0, 0.0, 0.0, 0.0, 0.0, 0.0, 0.0, 1.05, 3.09, 2.89, 3.69, 3.69, 2.81, 2.9, 1.83, 1.83, 3.57, -11.05, -11.05, -10.75, -10.75, -10.75, -10.75, -10.75, -10.75, -10.75, -10.45, -10.45, -10.45, -10.13, -10.13, -10.13, -9.84, -9.84, -9.84, -9.84, -9.79, -9.5, -9.5, -9.5, -9.21, -9.21, -9.5, -8.87, -8.87, -8.87, -8.87, -8.59, -8.23, -7.96, -7.59, -6.94, -6.56, -6.33, -6.08, -6.34, -5.95, -5.7, -5.06, -5.32, -4.45, -3.67, -3.53, -3.95, -3.51, -1.93, 0.0, 1.93, 3.65, 4.4, 4.2, 4.2, 4.56, 4.96, 5.59, 5.59, 5.59, 5.1, 5.53, 4.68, 6.17, 5.29, 5.29, 5.46, 5.1, 5.32, 6.5, 6.5, 5.2, 3.56, 4.66, 7.39, 12.28, 10.05, 0.95, -1.01, -1.77, -1.77, 0.0, 0.0, 0.84, 1.72, 1.67, 2.64, 2.8, 3.69, 3.69, 3.58, 3.58, 2.64, 1.89, 0.92, 0.0, 0.0, 1.83, -10.72, -10.72, -10.72, -10.72, -10.43, -10.43, -10.75, -10.75, -10.75, -10.75, -10.75, -10.45, -10.13, -10.13, -10.13, -10.13, -10.13, -10.13, -9.5, -9.5, -9.5, -9.5, -9.5, -9.21, -9.21, -9.5, -8.87, -8.87, -8.87, -8.59, -8.23, -7.96, -8.24, -7.59, -7.33, -6.96, -6.31, -6.33, -5.69, -5.7, -5.7, -5.72, -5.32, -5.15, -4.4, -3.82, -2.97, -1.68, 0.0, 0.89, 2.59, 3.36, 3.36, 3.36, 4.2, 4.2, 4.34, 4.71, 5.1, 5.1, 5.1, 5.24, 6.17, 5.9, 5.9, 6.17, 4.88, 5.52, 6.58, 6.5, 6.76, 5.2, 1.98, 1.77, 4.95, 9.63, 14.37, 11.1, 4.95, 2.81, 3.02, 3.69, 3.91, 3.59, 3.71, 3.64, 3.3, 3.48, 3.58, 2.72, 2.64, 1.78, 0.84, 0.0, 0.0, 0.0, 0.0, 0.0, -10.72, -10.72, -10.72, -10.72, -10.72, -10.43, -10.43, -10.75, -10.75, -10.75, -10.75, -10.75, -10.13, -10.13, -10.13, -10.13, -10.13, -10.13, -9.84, -9.5, -9.5, -9.5, -9.21, -9.21, -9.5, -9.5, -9.21, -8.87, -8.87, -8.59, -8.24, -8.24, -8.24, -8.24, -7.6, -7.22, -6.96, -6.31, -5.92, -5.95, -5.7, -5.56, -5.32, -5.1, -4.8, -3.46, -2.21, -0.78, 0.0, 0.78, 1.54, 2.28, 2.59, 3.36, 3.21, 3.49, 4.34, 4.96, 4.71, 4.46, 4.83, 4.83, 4.68, 5.9, 5.9, 6.17, 6.17, 6.17, 6.58, 6.5, 5.54, 3.77, 1.91, 1.23, 1.9, 3.49, 6.93, 13.03, 13.39, 9.55, 8.47, 7.91, 6.34, 5.65, 5.09, 3.98, 3.2, 2.5, 1.73, 0.92, 0.89, 0.0, 0.0, 0.0, -1.06, -1.15, -1.15, -1.15, -10.72, -10.72, -10.72, -10.72, -10.72, -10.72, -10.43, -10.43, -10.43, -10.43, -10.43, -10.43, -10.43, -10.13, -10.13, -10.13, -10.13, -9.84, -9.84, -9.5, -9.5, -9.21, -9.21, -9.21, -9.5, -9.5, -8.87, -8.87, -8.59, -8.87, -8.24, -8.24, -8.24, -8.24, -7.6, -7.6, -6.96, -6.31, -5.92, -5.69, -5.29, -5.29, -5.56, -5.1, -4.6, -3.46, -2.15, -0.75, 0.0, 0.72, 0.78, 1.54, 1.54, 2.47, 3.21, 3.49, 4.2, 4.34, 4.12, 3.91, 3.91, 4.26, 4.68, 5.9, 5.63, 5.9, 6.17, 7.59, 6.58, 5.32, 4.23, 2.49, 1.18, 1.16, 0.0, 1.19, 3.13, 7.97, 12.19, 13.28, 13.11, 11.66, 8.01, 6.44, 5.08, 3.57, 3.04, 1.63, 0.87, 0.0, 0.0, -0.87, -0.92, -2.02, -2.18, -2.28, -2.28, -2.28, -10.72, -10.72, -10.72, -10.72, -10.72, -10.72, -10.72, -10.72, -10.43, -10.43, -10.43, -10.43, -10.43, -10.13, -9.84, -9.84, -9.84, -9.84, -9.84, -9.5, -9.21, -9.21, -9.21, -9.5, -9.5, -9.21, -8.87, -8.87, -8.59, -8.87, -8.24, -8.24, -8.24, -8.24, -7.6, -7.6, -6.96, -6.7, -6.33, -5.92, -5.26, -5.04, -4.84, -4.35, -4.05, -3.46, -2.15, -0.7, 0.0, 0.0, 0.72, 0.72, 1.54, 2.28, 2.47, 3.49, 3.49, 4.0, 4.34, 4.12, 3.91, 4.26, 4.26, 4.42, 5.9, 5.9, 5.29, 3.87, 5.1, 4.05, 1.76, 1.22, 1.14, 1.11, 1.09, 2.13, 3.09, 3.98, 7.68, 12.59, 15.08, 14.05, 10.26, 6.66, 5.08, 4.35, 2.93, 1.47, 0.0, 0.0, -1.26, -1.77, -2.72, -2.9, -3.12, -3.36, -3.36, -3.36, -10.69, -10.69, -10.72, -10.72, -10.72, -10.72, -10.72, -10.72, -10.72, -10.43, -10.43, -10.43, -10.43, -10.13, -10.13, -9.84, -9.84, -9.84, -9.84, -9.5, -9.21, -9.5, -9.5, -9.5, -9.5, -9.21, -8.87, -8.59, -8.87, -8.58, -8.24, -8.24, -8.24, -8.24, -7.96, -7.6, -6.96, -6.97, -6.33, -5.92, -5.69, -5.26, -4.6, -4.35, -3.82, -3.46, -2.15, -1.45, -0.79, 0.0, 0.0, 0.72, 0.72, 1.54, 2.28, 3.21, 3.49, 3.32, 3.32, 3.45, 3.91, 4.03, 4.03, 4.42, 4.42, 3.65, 3.65, 2.46, 2.28, 1.22, 1.22, 1.09, 1.14, 1.11, 2.16, 2.13, 2.02, 2.88, 4.79, 7.13, 12.08, 13.5, 10.83, 6.95, 5.26, 4.4, 2.83, 0.73, 0.0, -1.13, -2.56, -2.92, -3.68, -3.94, -3.94, -4.24, -4.24, -4.24, -10.69, -10.69, -10.69, -10.4, -10.4, -10.4, -10.72, -10.72, -10.72, -10.72, -10.72, -10.43, -10.43, -10.13, -10.13, -10.13, -10.13, -10.13, -10.13, -9.8, -9.5, -9.5, -9.5, -9.5, -9.21, -9.21, -8.87, -8.87, -8.87, -8.58, -8.24, -8.24, -8.24, -7.96, -7.96, -7.6, -7.33, -6.97, -6.33, -6.33, -5.69, -5.26, -4.8, -4.35, -3.82, -3.25, -2.82, -2.15, -0.73, 0.0, 0.0, 0.0, 0.75, 1.54, 2.17, 2.35, 3.06, 3.32, 3.32, 3.45, 3.45, 3.27, 3.4, 4.03, 4.16, 3.65, 3.49, 1.84, 3.49, 3.7, 2.28, 2.13, 2.33, 2.28, 2.24, 2.13, 2.11, 2.89, 3.79, 5.96, 7.66, 9.87, 9.47, 9.96, 7.57, 4.55, 1.47, 0.0, -0.82, -3.57, -3.81, -3.68, -4.65, -4.65, -4.65, -4.99, -4.99, -4.99, -10.69, -10.69, -10.69, -10.69, -10.69, -10.4, -10.4, -10.72, -10.72, -10.72, -10.72, -10.72, -10.43, -10.13, -10.13, -10.13, -10.13, -10.13, -10.13, -9.5, -9.5, -9.5, -9.5, -9.5, -9.21, -9.21, -8.59, -8.87, -8.87, -8.58, -8.24, -8.24, -7.96, -7.96, -7.96, -7.6, -7.33, -6.97, -6.58, -6.33, -5.69, -5.26, -5.26, -5.05, -4.35, -3.25, -2.82, -2.15, -1.45, -0.73, 0.0, 0.0, 0.75, 0.75, 1.54, 2.35, 2.35, 3.32, 3.32, 3.15, 3.45, 3.27, 3.4, 3.2, 3.33, 3.49, 3.49, 3.49, 3.65, 3.7, 3.61, 3.61, 2.42, 2.28, 2.16, 2.24, 2.2, 3.22, 4.05, 5.09, 5.33, 7.73, 10.74, 12.39, 9.13, 4.99, 1.58, 0.0, -3.91, -4.71, -6.0, -6.15, -5.43, -5.43, -5.8, -5.8, -5.8, -5.8, -10.69, -10.69, -10.69, -10.69, -10.69, -10.4, -10.4, -10.4, -10.4, -10.4, -10.72, -10.72, -10.72, -10.43, -10.13, -10.13, -9.82, -9.82, -9.82, -9.5, -9.5, -9.5, -9.5, -9.21, -9.21, -9.21, -8.87, -8.87, -8.87, -8.58, -8.24, -8.24, -7.96, -8.24, -7.89, -7.61, -7.61, -7.24, -6.97, -6.33, -5.69, -5.26, -5.52, -5.05, -4.54, -3.82, -3.25, -2.15, -1.45, -1.45, -0.73, 0.0, 0.0, 0.75, 1.54, 1.54, 2.35, 2.35, 2.44, 2.44, 2.69, 3.27, 3.4, 3.4, 3.55, 3.8, 3.52, 4.66, 3.3, 3.3, 2.39, 1.09, 2.33, 1.11, 1.2, 1.13, 2.13, 2.2, 4.21, 5.11, 5.37, 6.59, 10.0, 13.36, 9.63, 6.01, 0.0, -2.72, -4.65, -6.31, -7.24, -7.24, -7.24, -6.7, -6.7, -6.31, -6.31, -6.31, -10.69, -10.65, -10.69, -10.69, -10.69, -10.69, -10.4, -10.4, -10.4, -10.4, -10.4, -10.72, -10.72, -10.72, -9.82, -9.82, -9.82, -9.82, -9.82, -9.5, -9.5, -9.5, -9.21, -9.21, -9.21, -8.87, -8.87, -8.87, -8.87, -8.58, -8.24, -7.96, -8.24, -8.24, -7.61, -7.61, -7.61, -7.24, -6.97, -6.33, -5.69, -5.69, -5.52, -5.05, -4.35, -3.82, -3.25, -2.65, -2.15, -1.45, -0.7, 0.0, 0.0, 0.75, 0.82, 1.54, 1.6, 2.35, 2.44, 2.44, 2.69, 2.54, 2.83, 2.67, 2.51, 4.0, 3.52, 3.7, 3.3, 3.3, 3.3, 2.13, 1.09, 0.0, 1.16, 1.13, 2.32, 2.4, 3.36, 4.47, 5.26, 5.37, 6.81, 8.59, 7.06, 0.85, 0.0, -0.96, -3.34, -4.9, -7.14, -7.97, -8.27, -8.22, -7.78, -7.54, -7.54, -7.54, -10.65, -10.65, -10.65, -10.36, -10.69, -10.69, -10.69, -10.4, -10.4, -10.4, -10.4, -10.4, -10.4, -10.4, -10.12, -9.82, -9.82, -9.82, -9.82, -9.5, -9.5, -9.5, -9.21, -9.21, -9.21, -8.87, -8.87, -8.87, -8.58, -8.58, -8.24, -7.96, -8.24, -7.61, -7.61, -7.61, -7.61, -6.97, -6.97, -6.33, -5.92, -5.69, -5.52, -5.05, -4.35, -3.82, -3.25, -2.65, -2.02, -1.45, -0.73, -0.7, 0.0, 0.0, 0.82, 1.62, 1.68, 1.6, 1.67, 2.44, 2.31, 2.54, 2.54, 2.67, 2.67, 2.67, 2.83, 3.52, 3.52, 4.66, 4.4, 3.11, 2.13, 1.09, 0.0, 1.2, 2.45, 3.41, 3.65, 3.32, 4.18, 4.3, 4.54, 3.65, 0.0, 0.0, 0.0, 0.0, 0.0, 0.0, -2.28, -6.71, -8.93, -9.16, -8.41, -7.15, -7.15, -7.15, -10.65, -10.65, -10.65, -10.36, -10.36, -10.69, -10.69, -10.69, -10.4, -10.4, -10.4, -10.4, -10.4, -10.4, -10.4, -10.12, -10.12, -9.82, -9.82, -9.5, -9.5, -9.21, -9.21, -9.21, -9.21, -8.87, -8.87, -8.87, -8.58, -8.58, -8.24, -8.24, -8.24, -7.61, -7.61, -7.61, -7.61, -6.97, -6.97, -6.33, -6.33, -5.69, -5.26, -5.05, -4.35, -3.82, -3.25, -2.65, -2.02, -1.36, -1.45, -0.7, 0.0, 0.0, 0.82, 0.82, 0.78, 1.6, 1.6, 1.67, 1.58, 1.75, 1.75, 1.95, 1.95, 1.84, 2.97, 2.97, 3.7, 3.7, 3.3, 3.45, 3.25, 3.25, 1.18, 2.52, 3.96, 3.85, 3.53, 3.53, 3.47, 3.42, 3.37, 0.0, 0.0, 0.0, 0.0, 0.0, -0.92, -0.83, 0.0, -2.28, -7.9, -10.0, -8.94, -5.0, -5.0, -5.0, -10.65, -10.65, -10.65, -10.65, -10.36, -10.36, -10.69, -10.69, -10.69, -10.4, -10.4, -10.4, -10.4, -10.4, -10.4, -10.12, -10.12, -9.82, -9.82, -9.82, -9.5, -9.21, -9.21, -9.21, -9.5, -8.87, -8.87, -8.87, -8.58, -8.24, -7.96, -8.24, -7.95, -7.61, -7.61, -7.61, -6.97, -6.97, -6.97, -6.33, -6.33, -5.69, -5.26, -4.84, -4.35, -3.82, -3.25, -3.25, -2.65, -2.02, -1.3, -0.7, 0.0, 0.0, 0.0, 0.82, 0.78, 0.85, 1.6, 1.75, 1.67, 1.58, 1.75, 1.75, 1.75, 1.95, 2.06, 2.17, 3.25, 2.7, 2.7, 2.39, 3.25, 3.39, 4.8, 5.0, 5.4, 4.1, 3.85, 2.63, 2.72, 3.69, 3.5, 3.62, 2.93, 1.82, 0.0, -0.97, -2.98, -3.46, -3.32, -2.82, -3.53, -6.2, -3.53, 0.0, 0.0, 0.0, -10.65, -10.65, -10.65, -10.65, -10.65, -10.36, -10.36, -10.69, -10.69, -10.69, -10.4, -10.4, -10.4, -10.4, -10.12, -10.12, -10.12, -10.12, -9.82, -9.82, -9.5, -9.21, -9.21, -9.5, -9.5, -8.87, -8.87, -8.58, -8.58, -8.24, -8.24, -8.24, -7.61, -7.61, -7.61, -7.61, -6.97, -6.97, -6.97, -6.33, -6.33, -5.69, -5.26, -4.6, -4.35, -4.35, -3.82, -3.25, -2.65, -2.02, -1.3, -1.39, 0.0, 0.0, 0.0, 0.0, 0.78, 0.85, 0.81, 0.89, 1.67, 1.67, 1.58, 1.75, 0.89, 0.89, 2.06, 2.06, 1.69, 1.45, 1.52, 1.28, 2.23, 2.23, 3.39, 2.23, 4.08, 3.96, 2.81, 2.91, 2.91, 2.89, 4.84, 8.35, 6.88, 4.24, 1.13, -1.26, -4.74, -6.48, -6.57, -6.2, -6.21, -3.82, -3.68, -3.53, -3.53, -3.53, -10.65, -10.65, -10.65, -10.65, -10.65, -10.36, -10.36, -10.36, -10.69, -10.69, -10.69, -10.4, -10.4, -10.42, -9.8, -10.12, -10.12, -10.12, -10.12, -10.12, -10.12, -9.8, -9.5, -9.5, -9.5, -8.87, -8.87, -8.58, -8.58, -8.24, -8.24, -8.24, -7.61, -7.61, -7.61, -7.61, -6.97, -6.97, -6.97, -6.33, -6.33, -5.69, -5.04, -4.6, -4.6, -4.35, -3.82, -3.25, -2.65, -1.93, -1.93, -1.39, 0.0, 0.0, 0.0, 0.0, 0.0, 0.85, 0.85, 0.81, 0.85, 0.85, 0.8, 0.8, 0.89, 0.89, 1.0, 1.05, 1.05, 1.52, 1.52, 1.33, 1.18, 1.14, 2.23, 2.23, 1.14, 1.28, 1.38, 1.43, 1.48, 2.8, 4.22, 6.31, 8.75, 5.8, 3.99, 1.08, -1.28, -5.72, -8.49, -9.27, -8.85, -3.82, 0.0, 0.0, 0.0, 0.0, -10.3, -10.3, -10.65, -10.65, -10.65, -10.65, -10.36, -10.36, -10.36, -10.36, -10.69, -10.69, -10.09, -10.09, -10.09, -10.09, -10.12, -10.12, -10.12, -10.12, -10.12, -10.12, -9.5, -9.5, -9.5, -9.19, -8.87, -8.58, -8.58, -8.24, -8.24, -8.24, -7.61, -7.61, -7.61, -7.33, -6.97, -6.97, -6.71, -6.33, -5.92, -5.69, -5.04, -4.6, -4.6, -4.35, -3.82, -3.11, -2.53, -2.53, -1.93, -0.7, -0.7, 0.0, 0.0, 0.0, 0.0, 0.0, 0.85, 0.81, 0.81, 0.77, 0.85, 0.8, 0.8, 0.89, 0.89, 1.05, 1.05, 0.0, 0.0, 0.0, 1.22, 1.22, 2.23, 1.14, 1.09, 0.0, 0.0, 0.0, 1.33, 1.34, 2.87, 2.54, 4.39, 3.78, 3.6, 2.95, 1.03, 0.0, -1.71, 0.0, 4.1, 6.0, 5.8, 6.43, 6.43, 6.43, -10.3, -10.3, -10.3, -10.65, -10.65, -10.65, -10.65, -10.36, -10.36, -10.36, -10.36, -10.36, -10.09, -10.09, -10.09, -10.09, -9.8, -10.12, -10.12, -10.12, -10.12, -9.8, -9.8, -9.5, -9.5, -9.19, -8.87, -8.58, -8.58, -8.24, -8.24, -8.24, -7.61, -7.61, -7.61, -7.33, -6.97, -6.97, -6.33, -6.33, -5.92, -5.69, -5.04, -5.04, -4.6, -4.12, -3.82, -3.11, -3.11, -2.53, -1.93, -1.39, -0.7, 0.0, 0.0, 0.0, 0.0, 0.0, 0.0, 0.81, 0.81, 0.0, 0.0, 0.0, 0.8, 0.8, 0.94, 0.0, 0.0, 0.0, 0.0, 0.0, 1.22, 1.16, 1.22, 1.09, 1.09, 1.09, 0.0, 0.0, 1.33, 1.3, 0.0, 0.0, 0.0, 1.3, 2.09, 2.79, 2.64, 1.71, 2.71, 4.1, 6.2, 6.64, 6.42, 6.21, 6.21, 6.21, -10.59, -10.59, -10.3, -10.3, -10.3, -10.65, -10.65, -10.36, -10.36, -10.36, -10.36, -10.09, -10.09, -10.09, -10.09, -10.09, -10.09, -9.8, -10.12, -10.12, -10.12, -9.8, -9.8, -9.5, -9.5, -9.19, -9.19, -8.58, -8.87, -8.24, -8.24, -8.24, -7.95, -7.61, -7.61, -7.33, -6.97, -6.97, -6.33, -6.33, -6.33, -5.69, -5.26, -5.04, -4.6, -4.35, -3.82, -3.65, -3.11, -2.53, -1.93, -1.39, -0.7, -0.72, 0.0, 0.0, 0.0, 0.0, 0.0, 0.0, 0.0, 0.0, 0.0, 0.0, 0.0, 0.0, 0.0, 0.0, 0.0, 0.0, 0.0, 0.0, 1.28, 1.16, 1.16, 1.09, 1.09, 1.09, 1.18, 1.33, 1.29, 0.0, 0.0, 0.0, 0.0, 0.0, 1.04, 2.78, 3.33, 3.1, 3.04, 4.1, 4.98, 5.46, 5.62, 5.43, 5.43, 5.43, -10.59, -10.59, -10.59, -10.3, -10.3, -10.3, -10.65, -10.65, -10.36, -10.36, -10.09, -10.09, -10.09, -10.09, -10.09, -10.09, -10.09, -9.8, -9.8, -9.8, -9.8, -9.8, -9.8, -9.8, -9.5, -9.5, -9.19, -8.58, -8.87, -8.56, -8.24, -8.24, -7.95, -7.61, -7.61, -7.33, -6.97, -6.97, -6.33, -6.33, -6.33, -5.69, -5.26, -5.04, -4.6, -4.35, -3.82, -3.82, -3.11, -2.53, -2.53, -1.39, -1.43, -0.72, -0.72, 0.0, 0.0, 0.0, 0.0, 0.0, 0.0, 0.0, 0.0, 0.0, 0.0, 0.0, 0.0, 0.0, 0.0, -0.99, -1.04, 0.0, 0.0, 0.0, 0.0, 1.22, 1.09, 1.14, 0.0, 0.0, 0.0, 0.0, 0.0, 0.0, 0.0, 0.0, 2.2, 2.92, 3.42, 3.75, 4.04, 3.73, 4.1, 4.81, 4.98, 4.81, 4.81, 4.81, -10.59, -10.59, -10.59, -10.3, -10.3, -10.3, -10.3, -10.65, -10.39, -10.09, -10.09, -10.09, -10.09, -10.09, -10.09, -10.09, -10.09, -10.09, -9.8, -9.8, -9.8, -9.8, -9.8, -9.8, -9.5, -9.5, -9.19, -8.58, -8.87, -8.87, -8.24, -8.24, -7.95, -7.61, -7.61, -7.33, -6.97, -6.97, -6.71, -6.33, -6.33, -5.69, -5.69, -5.04, -4.84, -4.35, -4.35, -3.82, -3.11, -2.53, -2.06, -1.39, -1.43, -0.72, -0.72, -0.72, 0.0, 0.0, 0.0, 0.0, 0.0, 0.0, 0.0, 0.0, 0.0, 0.0, 0.0, 0.0, -0.89, -0.99, -1.94, -1.84, -0.89, 0.0, 0.0, 0.0, 0.0, 0.0, 0.0, 0.0, 0.0, 0.0, -1.26, -1.3, 0.0, 1.39, 2.45, 4.3, 4.55, 4.07, 4.27, 4.1, 3.87, 4.71, 4.71, 4.38, 4.38, 4.38, -10.59, -10.59, -10.59, -10.3, -10.3, -10.3, -10.3, -10.65, -10.39, -10.09, -10.09, -10.09, -10.09, -10.09, -10.09, -10.09, -10.09, -10.09, -9.8, -9.8, -9.8, -9.8, -9.8, -9.8, -9.5, -9.5, -9.19, -8.58, -8.87, -8.87, -8.24, -8.24, -7.95, -7.61, -7.61, -7.33, -6.97, -6.97, -6.71, -6.33, -6.33, -5.69, -5.69, -5.04, -4.84, -4.35, -4.35, -3.82, -3.11, -2.53, -2.06, -1.39, -1.43, -0.72, -0.72, -0.72, 0.0, 0.0, 0.0, 0.0, 0.0, 0.0, 0.0, 0.0, 0.0, 0.0, 0.0, 0.0, -0.89, -0.99, -1.94, -1.84, -0.89, 0.0, 0.0, 0.0, 0.0, 0.0, 0.0, 0.0, 0.0, -1.33, -1.34, 0.0, 0.0, 1.34, 2.48, 4.79, 5.46, 5.52, 4.66, 4.61, 4.0, 4.24, 3.57, 3.69, 3.69, 3.69]}]